Time,TemperatureF,DewpointF,PressureIn,WindDirection,WindDirectionDegrees,WindSpeedMPH,WindSpeedGustMPH,Humidity,HourlyPrecipIn,Conditions,Clouds,dailyrainin,SoftwareType,DateUTC
2013-11-15 00:01:00,40.6,-2.0,30.18,SW,225,0.0,0.0,16,0.00,,---,0.00,VWS V14.01,2013-11-15 05:01:00,
2013-11-15 00:06:00,40.6,-2.0,30.18,SSW,202,0.0,2.5,16,0.00,,---,0.00,VWS V14.01,2013-11-15 05:06:00,
2013-11-15 00:11:00,40.6,-2.0,30.18,NW,315,0.0,0.0,16,0.00,,---,0.00,VWS V14.01,2013-11-15 05:11:00,
2013-11-15 00:12:00,40.6,-2.0,30.18,West,270,0.0,0.0,16,0.00,,---,0.00,VWS V14.01,2013-11-15 05:12:00,
2013-11-15 00:16:00,40.6,-2.0,30.18,SW,225,0.0,0.0,16,0.00,,---,0.00,VWS V14.01,2013-11-15 05:16:00,
2013-11-15 00:17:00,40.6,-2.0,30.18,South,180,1.1,1.1,16,0.00,,---,0.00,VWS V14.01,2013-11-15 05:17:00,
2013-11-15 00:21:00,40.6,-2.0,30.18,WNW,292,0.0,0.0,16,0.00,,---,0.00,VWS V14.01,2013-11-15 05:21:00,
2013-11-15 00:22:00,40.6,-2.0,30.18,NW,315,0.0,0.0,16,0.00,,---,0.00,VWS V14.01,2013-11-15 05:22:00,
2013-11-15 00:26:00,40.5,-2.2,30.18,South,180,0.0,0.0,16,0.00,,---,0.00,VWS V14.01,2013-11-15 05:26:00,
2013-11-15 00:27:00,40.5,-2.2,30.18,WNW,292,0.0,0.0,16,0.00,,---,0.00,VWS V14.01,2013-11-15 05:27:00,
2013-11-15 00:31:00,40.5,-2.2,30.18,SW,225,0.0,0.0,16,0.00,,---,0.00,VWS V14.01,2013-11-15 05:31:00,
2013-11-15 00:32:00,40.3,-2.3,30.18,SW,225,0.0,0.0,16,0.00,,---,0.00,VWS V14.01,2013-11-15 05:32:00,
2013-11-15 00:36:00,40.3,-2.3,30.18,SW,225,0.0,0.0,16,0.00,,---,0.00,VWS V14.01,2013-11-15 05:36:00,
2013-11-15 00:37:00,40.3,-2.3,30.18,SSW,202,0.0,0.0,16,0.00,,---,0.00,VWS V14.01,2013-11-15 05:37:00,
2013-11-15 00:41:00,40.3,-2.3,30.18,WSW,248,0.0,0.0,16,0.00,,---,0.00,VWS V14.01,2013-11-15 05:41:00,
2013-11-15 00:42:00,40.3,-2.3,30.18,North,0,0.0,0.0,16,0.00,,---,0.00,VWS V14.01,2013-11-15 05:42:00,
2013-11-15 00:43:00,40.1,-2.5,30.18,WSW,248,0.0,0.0,16,0.00,,---,0.00,VWS V14.01,2013-11-15 05:43:00,
2013-11-15 00:46:00,40.1,-2.5,30.18,SSW,202,0.0,0.0,16,0.00,,---,0.00,VWS V14.01,2013-11-15 05:46:00,
2013-11-15 00:47:00,40.1,-2.5,30.18,WSW,248,0.0,0.0,16,0.00,,---,0.00,VWS V14.01,2013-11-15 05:47:00,
2013-11-15 00:48:00,40.1,-2.5,30.18,SSW,202,0.0,0.0,16,0.00,,---,0.00,VWS V14.01,2013-11-15 05:48:00,
2013-11-15 00:51:00,40.1,-2.5,30.18,SSW,202,0.0,0.0,16,0.00,,---,0.00,VWS V14.01,2013-11-15 05:51:00,
2013-11-15 00:52:00,40.1,-2.5,30.18,SSW,202,0.0,0.0,16,0.00,,---,0.00,VWS V14.01,2013-11-15 05:52:00,
2013-11-15 00:53:00,39.9,-2.6,30.18,SSW,202,0.0,0.0,16,0.00,,---,0.00,VWS V14.01,2013-11-15 05:53:00,
2013-11-15 00:56:00,39.9,-2.6,30.18,SSW,202,0.0,0.0,16,0.00,,---,0.00,VWS V14.01,2013-11-15 05:56:00,
2013-11-15 00:57:00,39.9,-2.6,30.18,SSW,202,0.0,0.0,16,0.00,,---,0.00,VWS V14.01,2013-11-15 05:57:00,
2013-11-15 00:58:00,39.9,-2.6,30.18,SSW,202,0.0,0.0,16,0.00,,---,0.00,VWS V14.01,2013-11-15 05:58:00,
2013-11-15 01:01:00,39.7,-2.8,30.18,SW,225,0.0,0.0,16,0.00,,---,0.00,VWS V14.01,2013-11-15 06:01:00,
2013-11-15 01:02:00,39.7,-2.8,30.18,SW,225,0.0,0.0,16,0.00,,---,0.00,VWS V14.01,2013-11-15 06:02:00,
2013-11-15 01:03:00,39.7,-2.8,30.18,NW,315,0.0,0.0,16,0.00,,---,0.00,VWS V14.01,2013-11-15 06:03:00,
2013-11-15 01:07:00,39.6,-2.9,30.18,SW,225,0.0,0.0,16,0.00,,---,0.00,VWS V14.01,2013-11-15 06:07:00,
2013-11-15 01:08:00,39.4,-3.1,30.18,SW,225,0.0,0.0,16,0.00,,---,0.00,VWS V14.01,2013-11-15 06:08:00,
2013-11-15 01:09:00,39.4,-3.1,30.18,SW,225,0.0,0.0,16,0.00,,---,0.00,VWS V14.01,2013-11-15 06:09:00,
2013-11-15 01:12:00,39.2,-3.2,30.18,SW,225,0.0,0.0,16,0.00,,---,0.00,VWS V14.01,2013-11-15 06:12:00,
2013-11-15 01:13:00,39.2,-3.2,30.18,South,180,0.0,0.0,16,0.00,,---,0.00,VWS V14.01,2013-11-15 06:13:00,
2013-11-15 01:14:00,39.2,-3.2,30.18,South,180,0.0,0.0,16,0.00,,---,0.00,VWS V14.01,2013-11-15 06:14:00,
2013-11-15 01:17:00,38.8,-3.5,30.18,West,270,0.0,0.0,16,0.00,,---,0.00,VWS V14.01,2013-11-15 06:17:00,
2013-11-15 01:18:00,38.8,-3.5,30.18,West,270,0.0,0.0,16,0.00,,---,0.00,VWS V14.01,2013-11-15 06:18:00,
2013-11-15 01:19:00,38.8,-3.5,30.18,West,270,0.0,0.0,16,0.00,,---,0.00,VWS V14.01,2013-11-15 06:19:00,
2013-11-15 01:22:00,38.5,-3.8,30.18,West,270,0.0,0.0,16,0.00,,---,0.00,VWS V14.01,2013-11-15 06:22:00,
2013-11-15 01:23:00,38.5,-3.8,30.18,West,270,0.0,0.0,16,0.00,,---,0.00,VWS V14.01,2013-11-15 06:23:00,
2013-11-15 01:24:00,38.3,-4.0,30.18,West,270,0.0,0.0,16,0.00,,---,0.00,VWS V14.01,2013-11-15 06:24:00,
2013-11-15 01:27:00,38.3,-4.0,30.18,West,270,0.0,0.0,16,0.00,,---,0.00,VWS V14.01,2013-11-15 06:27:00,
2013-11-15 01:28:00,38.1,-4.1,30.18,West,270,0.0,0.0,16,0.00,,---,0.00,VWS V14.01,2013-11-15 06:28:00,
2013-11-15 01:29:00,38.1,-4.1,30.18,West,270,0.0,0.0,16,0.00,,---,0.00,VWS V14.01,2013-11-15 06:29:00,
2013-11-15 01:32:00,37.9,-4.2,30.18,West,270,0.0,0.0,16,0.00,,---,0.00,VWS V14.01,2013-11-15 06:32:00,
2013-11-15 01:33:00,37.9,-4.2,30.18,West,270,0.0,0.0,16,0.00,,---,0.00,VWS V14.01,2013-11-15 06:33:00,
2013-11-15 01:34:00,37.9,-4.2,30.18,West,270,0.0,0.0,16,0.00,,---,0.00,VWS V14.01,2013-11-15 06:34:00,
2013-11-15 01:35:00,37.8,-4.4,30.18,West,270,0.0,0.0,16,0.00,,---,0.00,VWS V14.01,2013-11-15 06:35:00,
2013-11-15 01:37:00,37.6,-4.5,30.18,West,270,0.0,0.0,16,0.00,,---,0.00,VWS V14.01,2013-11-15 06:37:00,
2013-11-15 01:38:00,37.6,-4.5,30.18,West,270,0.0,0.0,16,0.00,,---,0.00,VWS V14.01,2013-11-15 06:38:00,
2013-11-15 01:39:00,37.6,-4.5,30.18,West,270,0.0,0.0,16,0.00,,---,0.00,VWS V14.01,2013-11-15 06:39:00,
2013-11-15 01:40:00,37.6,-4.5,30.18,WSW,248,0.0,0.0,16,0.00,,---,0.00,VWS V14.01,2013-11-15 06:40:00,
2013-11-15 01:42:00,37.6,-4.5,30.18,SW,225,0.0,0.0,16,0.00,,---,0.00,VWS V14.01,2013-11-15 06:42:00,
2013-11-15 01:43:00,37.4,-4.7,30.18,SW,225,0.0,0.0,16,0.00,,---,0.00,VWS V14.01,2013-11-15 06:43:00,
2013-11-15 01:44:00,37.4,-4.7,30.18,SW,225,0.0,0.0,16,0.00,,---,0.00,VWS V14.01,2013-11-15 06:44:00,
2013-11-15 01:46:00,37.4,-4.7,30.18,WSW,248,0.0,0.0,16,0.00,,---,0.00,VWS V14.01,2013-11-15 06:46:00,
2013-11-15 01:47:00,37.4,-4.7,30.18,West,270,0.0,0.0,16,0.00,,---,0.00,VWS V14.01,2013-11-15 06:47:00,
2013-11-15 01:48:00,37.4,-4.7,30.18,West,270,0.0,0.0,16,0.00,,---,0.00,VWS V14.01,2013-11-15 06:48:00,
2013-11-15 01:49:00,37.2,-3.6,30.18,SW,225,0.0,0.0,17,0.00,,---,0.00,VWS V14.01,2013-11-15 06:49:00,
2013-11-15 01:50:00,37.2,-3.6,30.18,SW,225,0.0,0.0,17,0.00,,---,0.00,VWS V14.01,2013-11-15 06:50:00,
2013-11-15 01:51:00,37.0,-3.7,30.18,SW,225,0.0,0.0,17,0.00,,---,0.00,VWS V14.01,2013-11-15 06:51:00,
2013-11-15 01:52:00,37.0,-3.7,30.18,West,270,0.0,0.0,17,0.00,,---,0.00,VWS V14.01,2013-11-15 06:52:00,
2013-11-15 01:53:00,37.0,-3.7,30.18,West,270,0.0,0.0,17,0.00,,---,0.00,VWS V14.01,2013-11-15 06:53:00,
2013-11-15 01:54:00,37.0,-3.7,30.18,West,270,0.0,0.0,17,0.00,,---,0.00,VWS V14.01,2013-11-15 06:54:00,
2013-11-15 01:56:00,36.9,-3.9,30.18,West,270,0.0,0.0,17,0.00,,---,0.00,VWS V14.01,2013-11-15 06:56:00,
2013-11-15 01:57:00,36.9,-3.9,30.18,West,270,0.0,0.0,17,0.00,,---,0.00,VWS V14.01,2013-11-15 06:57:00,
2013-11-15 01:59:00,36.9,-3.9,30.18,West,270,0.0,0.0,17,0.00,,---,0.00,VWS V14.01,2013-11-15 06:59:00,
2013-11-15 02:00:00,36.7,-4.0,30.18,West,270,0.0,0.0,17,0.00,,---,0.00,VWS V14.01,2013-11-15 07:00:00,
2013-11-15 02:01:00,36.7,-4.0,30.18,West,270,0.0,0.0,17,0.00,,---,0.00,VWS V14.01,2013-11-15 07:01:00,
2013-11-15 02:03:00,36.7,-4.0,30.18,West,270,0.0,0.0,17,0.00,,---,0.00,VWS V14.01,2013-11-15 07:03:00,
2013-11-15 02:04:00,36.7,-4.0,30.18,West,270,0.0,0.0,17,0.00,,---,0.00,VWS V14.01,2013-11-15 07:04:00,
2013-11-15 02:05:00,36.7,-4.0,30.18,West,270,0.0,0.0,17,0.00,,---,0.00,VWS V14.01,2013-11-15 07:05:00,
2013-11-15 02:06:00,36.5,-4.2,30.18,West,270,0.0,0.0,17,0.00,,---,0.00,VWS V14.01,2013-11-15 07:06:00,
2013-11-15 02:07:00,36.5,-4.2,30.18,West,270,0.0,0.0,17,0.00,,---,0.00,VWS V14.01,2013-11-15 07:07:00,
2013-11-15 02:08:00,36.5,-4.2,30.18,WSW,248,0.0,0.0,17,0.00,,---,0.00,VWS V14.01,2013-11-15 07:08:00,
2013-11-15 02:09:00,36.3,-4.3,30.18,WSW,248,0.0,0.0,17,0.00,,---,0.00,VWS V14.01,2013-11-15 07:09:00,
2013-11-15 02:10:00,36.3,-4.3,30.18,WSW,248,0.0,0.0,17,0.00,,---,0.00,VWS V14.01,2013-11-15 07:10:00,
2013-11-15 02:11:00,36.1,-4.5,30.21,WSW,248,0.0,0.0,17,0.00,,---,0.00,VWS V14.01,2013-11-15 07:11:00,
2013-11-15 02:12:00,36.1,-4.5,30.21,WSW,248,0.0,0.0,17,0.00,,---,0.00,VWS V14.01,2013-11-15 07:12:00,
2013-11-15 02:13:00,36.1,-4.5,30.21,WSW,248,0.0,0.0,17,0.00,,---,0.00,VWS V14.01,2013-11-15 07:13:00,
2013-11-15 02:14:00,36.1,-4.5,30.21,WSW,248,0.0,0.0,17,0.00,,---,0.00,VWS V14.01,2013-11-15 07:14:00,
2013-11-15 02:15:00,36.0,-4.6,30.21,WSW,248,0.0,0.0,17,0.00,,---,0.00,VWS V14.01,2013-11-15 07:15:00,
2013-11-15 02:17:00,36.0,-4.6,30.21,WSW,248,0.0,0.0,17,0.00,,---,0.00,VWS V14.01,2013-11-15 07:17:00,
2013-11-15 02:18:00,36.0,-4.6,30.21,WSW,248,0.0,0.0,17,0.00,,---,0.00,VWS V14.01,2013-11-15 07:18:00,
2013-11-15 02:20:00,36.0,-4.6,30.21,WSW,248,0.0,0.0,17,0.00,,---,0.00,VWS V14.01,2013-11-15 07:20:00,
2013-11-15 02:22:00,36.0,-4.6,30.21,WSW,248,0.0,0.0,17,0.00,,---,0.00,VWS V14.01,2013-11-15 07:22:00,
2013-11-15 02:23:00,36.0,-4.6,30.21,WSW,248,0.0,0.0,17,0.00,,---,0.00,VWS V14.01,2013-11-15 07:23:00,
2013-11-15 02:25:00,35.8,-4.8,30.21,WSW,248,0.0,0.0,17,0.00,,---,0.00,VWS V14.01,2013-11-15 07:25:00,
2013-11-15 02:26:00,35.8,-4.8,30.21,WSW,248,0.0,0.0,17,0.00,,---,0.00,VWS V14.01,2013-11-15 07:26:00,
2013-11-15 02:27:00,35.6,-4.9,30.21,WSW,248,0.0,0.0,17,0.00,,---,0.00,VWS V14.01,2013-11-15 07:27:00,
2013-11-15 02:28:00,35.6,-4.9,30.21,WSW,248,0.0,0.0,17,0.00,,---,0.00,VWS V14.01,2013-11-15 07:28:00,
2013-11-15 02:30:00,35.4,-5.1,30.21,WSW,248,0.0,0.0,17,0.00,,---,0.00,VWS V14.01,2013-11-15 07:30:00,
2013-11-15 02:31:00,35.4,-5.1,30.21,WSW,248,0.0,0.0,17,0.00,,---,0.00,VWS V14.01,2013-11-15 07:31:00,
2013-11-15 02:32:00,35.4,-5.1,30.21,WSW,248,0.0,0.0,17,0.00,,---,0.00,VWS V14.01,2013-11-15 07:32:00,
2013-11-15 02:33:00,35.4,-5.1,30.21,WSW,248,0.0,0.0,17,0.00,,---,0.00,VWS V14.01,2013-11-15 07:33:00,
2013-11-15 02:35:00,35.4,-5.1,30.21,WSW,248,0.0,0.0,17,0.00,,---,0.00,VWS V14.01,2013-11-15 07:35:00,
2013-11-15 02:36:00,35.4,-5.1,30.21,WSW,248,0.0,0.0,17,0.00,,---,0.00,VWS V14.01,2013-11-15 07:36:00,
2013-11-15 02:38:00,35.2,-5.2,30.21,WSW,248,0.0,0.0,17,0.00,,---,0.00,VWS V14.01,2013-11-15 07:38:00,
2013-11-15 02:40:00,35.1,-5.3,30.21,WSW,248,0.0,0.0,17,0.00,,---,0.00,VWS V14.01,2013-11-15 07:40:00,
2013-11-15 02:41:00,35.1,-5.3,30.21,WSW,248,0.0,0.0,17,0.00,,---,0.00,VWS V14.01,2013-11-15 07:41:00,
2013-11-15 02:43:00,35.1,-5.3,30.21,WSW,248,0.0,0.0,17,0.00,,---,0.00,VWS V14.01,2013-11-15 07:43:00,
2013-11-15 02:44:00,35.1,-5.3,30.21,WSW,248,0.0,0.0,17,0.00,,---,0.00,VWS V14.01,2013-11-15 07:44:00,
2013-11-15 02:45:00,35.1,-5.3,30.21,WSW,248,0.0,0.0,17,0.00,,---,0.00,VWS V14.01,2013-11-15 07:45:00,
2013-11-15 02:46:00,35.1,-5.3,30.21,WSW,248,0.0,0.0,17,0.00,,---,0.00,VWS V14.01,2013-11-15 07:46:00,
2013-11-15 02:48:00,35.1,-5.3,30.21,WSW,248,0.0,0.0,17,0.00,,---,0.00,VWS V14.01,2013-11-15 07:48:00,
2013-11-15 02:50:00,35.1,-5.3,30.21,WSW,248,0.0,0.0,17,0.00,,---,0.00,VWS V14.01,2013-11-15 07:50:00,
2013-11-15 02:51:00,35.1,-5.3,30.21,WSW,248,0.0,0.0,17,0.00,,---,0.00,VWS V14.01,2013-11-15 07:51:00,
2013-11-15 02:53:00,34.9,-5.5,30.21,WSW,248,0.0,0.0,17,0.00,,---,0.00,VWS V14.01,2013-11-15 07:53:00,
2013-11-15 02:54:00,34.9,-5.5,30.21,WSW,248,0.0,0.0,17,0.00,,---,0.00,VWS V14.01,2013-11-15 07:54:00,
2013-11-15 02:55:00,34.9,-5.5,30.21,WSW,248,0.0,0.0,17,0.00,,---,0.00,VWS V14.01,2013-11-15 07:55:00,
2013-11-15 02:56:00,34.9,-5.5,30.21,WSW,248,0.0,0.0,17,0.00,,---,0.00,VWS V14.01,2013-11-15 07:56:00,
2013-11-15 02:57:00,34.9,-5.5,30.21,WSW,248,0.0,0.0,17,0.00,,---,0.00,VWS V14.01,2013-11-15 07:57:00,
2013-11-15 02:58:00,34.9,-2.1,30.21,WSW,248,0.0,0.0,20,0.00,,---,0.00,VWS V14.01,2013-11-15 07:58:00,
2013-11-15 02:59:00,34.9,-2.1,30.21,WSW,248,0.0,0.0,20,0.00,,---,0.00,VWS V14.01,2013-11-15 07:59:00,
2013-11-15 03:00:00,34.9,-2.1,30.21,WSW,248,0.0,0.0,20,0.00,,---,0.00,VWS V14.01,2013-11-15 08:00:00,
2013-11-15 03:01:00,34.9,-2.1,30.21,WSW,248,0.0,0.0,20,0.00,,---,0.00,VWS V14.01,2013-11-15 08:01:00,
2013-11-15 03:02:00,34.7,-2.3,30.21,WSW,248,0.0,0.0,20,0.00,,---,0.00,VWS V14.01,2013-11-15 08:02:00,
2013-11-15 03:03:00,34.9,-2.1,30.21,WSW,248,0.0,0.0,20,0.00,,---,0.00,VWS V14.01,2013-11-15 08:03:00,
2013-11-15 03:05:00,34.7,-2.3,30.21,WSW,248,0.0,0.0,20,0.00,,---,0.00,VWS V14.01,2013-11-15 08:05:00,
2013-11-15 03:06:00,34.7,-2.3,30.21,WSW,248,0.0,0.0,20,0.00,,---,0.00,VWS V14.01,2013-11-15 08:06:00,
2013-11-15 03:07:00,34.7,-2.3,30.21,WSW,248,0.0,0.0,20,0.00,,---,0.00,VWS V14.01,2013-11-15 08:07:00,
2013-11-15 03:08:00,34.7,-2.3,30.21,WSW,248,0.0,0.0,20,0.00,,---,0.00,VWS V14.01,2013-11-15 08:08:00,
2013-11-15 03:10:00,34.7,-2.3,30.21,WSW,248,0.0,0.0,20,0.00,,---,0.00,VWS V14.01,2013-11-15 08:10:00,
2013-11-15 03:11:00,34.7,-2.3,30.21,WSW,248,0.0,0.0,20,0.00,,---,0.00,VWS V14.01,2013-11-15 08:11:00,
2013-11-15 03:12:00,34.5,-2.4,30.21,WSW,248,0.0,0.0,20,0.00,,---,0.00,VWS V14.01,2013-11-15 08:12:00,
2013-11-15 03:13:00,34.3,-2.6,30.21,WSW,248,0.0,0.0,20,0.00,,---,0.00,VWS V14.01,2013-11-15 08:13:00,
2013-11-15 03:15:00,34.3,-2.6,30.21,WSW,248,0.0,0.0,20,0.00,,---,0.00,VWS V14.01,2013-11-15 08:15:00,
2013-11-15 03:16:00,34.3,-2.6,30.21,WSW,248,0.0,0.0,20,0.00,,---,0.00,VWS V14.01,2013-11-15 08:16:00,
2013-11-15 03:17:00,34.3,-2.6,30.21,WSW,248,0.0,0.0,20,0.00,,---,0.00,VWS V14.01,2013-11-15 08:17:00,
2013-11-15 03:19:00,34.3,-2.6,30.21,WSW,248,0.0,0.0,20,0.00,,---,0.00,VWS V14.01,2013-11-15 08:19:00,
2013-11-15 03:21:00,34.3,-2.6,30.21,WSW,248,0.0,0.0,20,0.00,,---,0.00,VWS V14.01,2013-11-15 08:21:00,
2013-11-15 03:22:00,34.2,-2.7,30.21,WSW,248,0.0,0.0,20,0.00,,---,0.00,VWS V14.01,2013-11-15 08:22:00,
2013-11-15 03:23:00,34.2,-2.7,30.21,WSW,248,0.0,0.0,20,0.00,,---,0.00,VWS V14.01,2013-11-15 08:23:00,
2013-11-15 03:24:00,34.2,-2.7,30.21,WSW,248,0.0,0.0,20,0.00,,---,0.00,VWS V14.01,2013-11-15 08:24:00,
2013-11-15 03:26:00,34.2,-2.7,30.21,WSW,248,0.0,0.0,20,0.00,,---,0.00,VWS V14.01,2013-11-15 08:26:00,
2013-11-15 03:27:00,34.2,-2.7,30.21,WSW,248,0.0,0.0,20,0.00,,---,0.00,VWS V14.01,2013-11-15 08:27:00,
2013-11-15 03:28:00,34.2,-2.7,30.21,WSW,248,0.0,0.0,20,0.00,,---,0.00,VWS V14.01,2013-11-15 08:28:00,
2013-11-15 03:29:00,34.0,-2.9,30.21,WSW,248,0.0,0.0,20,0.00,,---,0.00,VWS V14.01,2013-11-15 08:29:00,
2013-11-15 03:31:00,34.0,-2.9,30.21,WSW,248,0.0,0.0,20,0.00,,---,0.00,VWS V14.01,2013-11-15 08:31:00,
2013-11-15 03:32:00,34.0,-2.9,30.21,WSW,248,0.0,0.0,20,0.00,,---,0.00,VWS V14.01,2013-11-15 08:32:00,
2013-11-15 03:33:00,34.0,-2.9,30.21,WSW,248,0.0,0.0,20,0.00,,---,0.00,VWS V14.01,2013-11-15 08:33:00,
2013-11-15 03:34:00,34.0,-2.9,30.21,WSW,248,0.0,0.0,20,0.00,,---,0.00,VWS V14.01,2013-11-15 08:34:00,
2013-11-15 03:36:00,34.0,-2.9,30.21,WSW,248,0.0,0.0,20,0.00,,---,0.00,VWS V14.01,2013-11-15 08:36:00,
2013-11-15 03:37:00,34.0,-2.9,30.21,WSW,248,0.0,0.0,20,0.00,,---,0.00,VWS V14.01,2013-11-15 08:37:00,
2013-11-15 03:38:00,34.0,-2.9,30.21,WSW,248,0.0,0.0,20,0.00,,---,0.00,VWS V14.01,2013-11-15 08:38:00,
2013-11-15 03:39:00,34.0,-2.9,30.21,WSW,248,0.0,0.0,20,0.00,,---,0.00,VWS V14.01,2013-11-15 08:39:00,
2013-11-15 03:41:00,34.0,-2.9,30.18,WSW,248,0.0,0.0,20,0.00,,---,0.00,VWS V14.01,2013-11-15 08:41:00,
2013-11-15 03:43:00,34.0,-2.9,30.18,WSW,248,0.0,0.0,20,0.00,,---,0.00,VWS V14.01,2013-11-15 08:43:00,
2013-11-15 03:44:00,33.8,-3.0,30.18,WSW,248,0.0,0.0,20,0.00,,---,0.00,VWS V14.01,2013-11-15 08:44:00,
2013-11-15 03:46:00,33.8,-3.0,30.18,WSW,248,0.0,0.0,20,0.00,,---,0.00,VWS V14.01,2013-11-15 08:46:00,
2013-11-15 03:48:00,33.8,-3.0,30.18,WSW,248,0.0,0.0,20,0.00,,---,0.00,VWS V14.01,2013-11-15 08:48:00,
2013-11-15 03:49:00,33.8,-3.0,30.18,WSW,248,0.0,0.0,20,0.00,,---,0.00,VWS V14.01,2013-11-15 08:49:00,
2013-11-15 03:52:00,34.0,-2.9,30.18,WSW,248,0.0,0.0,20,0.00,,---,0.00,VWS V14.01,2013-11-15 08:52:00,
2013-11-15 03:53:00,34.0,-2.9,30.18,WSW,248,0.0,0.0,20,0.00,,---,0.00,VWS V14.01,2013-11-15 08:53:00,
2013-11-15 03:55:00,33.8,-3.0,30.18,WSW,248,0.0,0.0,20,0.00,,---,0.00,VWS V14.01,2013-11-15 08:55:00,
2013-11-15 03:57:00,33.8,-3.0,30.18,WSW,248,0.0,0.0,20,0.00,,---,0.00,VWS V14.01,2013-11-15 08:57:00,
2013-11-15 03:58:00,33.8,-3.0,30.18,WSW,248,0.0,0.0,20,0.00,,---,0.00,VWS V14.01,2013-11-15 08:58:00,
2013-11-15 04:00:00,33.8,-3.0,30.18,WSW,248,0.0,0.0,20,0.00,,---,0.00,VWS V14.01,2013-11-15 09:00:00,
2013-11-15 04:02:00,33.8,-3.0,30.18,WSW,248,0.0,0.0,20,0.00,,---,0.00,VWS V14.01,2013-11-15 09:02:00,
2013-11-15 04:03:00,34.0,-2.9,30.18,WSW,248,0.0,0.0,20,0.00,,---,0.00,VWS V14.01,2013-11-15 09:03:00,
2013-11-15 04:05:00,34.0,-2.9,30.18,WSW,248,0.0,0.0,20,0.00,,---,0.00,VWS V14.01,2013-11-15 09:05:00,
2013-11-15 04:07:00,34.0,-2.9,30.18,WSW,248,0.0,0.0,20,0.00,,---,0.00,VWS V14.01,2013-11-15 09:07:00,
2013-11-15 04:08:00,34.0,-2.9,30.18,WSW,248,0.0,0.0,20,0.00,,---,0.00,VWS V14.01,2013-11-15 09:08:00,
2013-11-15 04:10:00,34.0,-2.9,30.18,SW,225,0.0,0.0,20,0.00,,---,0.00,VWS V14.01,2013-11-15 09:10:00,
2013-11-15 04:12:00,33.8,-3.0,30.18,SW,225,0.0,0.0,20,0.00,,---,0.00,VWS V14.01,2013-11-15 09:12:00,
2013-11-15 04:13:00,33.8,-3.0,30.18,SW,225,0.0,0.0,20,0.00,,---,0.00,VWS V14.01,2013-11-15 09:13:00,
2013-11-15 04:14:00,33.8,-3.0,30.18,SW,225,0.0,0.0,20,0.00,,---,0.00,VWS V14.01,2013-11-15 09:14:00,
2013-11-15 04:15:00,33.8,-3.0,30.18,SW,225,0.0,0.0,20,0.00,,---,0.00,VWS V14.01,2013-11-15 09:15:00,
2013-11-15 04:16:00,33.8,-3.0,30.18,SW,225,0.0,0.0,20,0.00,,---,0.00,VWS V14.01,2013-11-15 09:16:00,
2013-11-15 04:17:00,33.8,-3.0,30.18,SW,225,0.0,0.0,20,0.00,,---,0.00,VWS V14.01,2013-11-15 09:17:00,
2013-11-15 04:18:00,33.8,-3.0,30.18,SW,225,0.0,0.0,20,0.00,,---,0.00,VWS V14.01,2013-11-15 09:18:00,
2013-11-15 04:19:00,33.8,-3.0,30.18,SW,225,0.0,0.0,20,0.00,,---,0.00,VWS V14.01,2013-11-15 09:19:00,
2013-11-15 04:20:00,33.8,-3.0,30.18,SW,225,0.0,0.0,20,0.00,,---,0.00,VWS V14.01,2013-11-15 09:20:00,
2013-11-15 04:21:00,33.8,-3.0,30.18,SW,225,0.0,0.0,20,0.00,,---,0.00,VWS V14.01,2013-11-15 09:21:00,
2013-11-15 04:22:00,33.6,-3.2,30.18,SW,225,0.0,0.0,20,0.00,,---,0.00,VWS V14.01,2013-11-15 09:22:00,
2013-11-15 04:24:00,33.6,-3.2,30.18,SW,225,0.0,0.0,20,0.00,,---,0.00,VWS V14.01,2013-11-15 09:24:00,
2013-11-15 04:25:00,33.6,-3.2,30.21,SW,225,0.0,0.0,20,0.00,,---,0.00,VWS V14.01,2013-11-15 09:25:00,
2013-11-15 04:27:00,33.6,-3.2,30.21,SW,225,0.0,0.0,20,0.00,,---,0.00,VWS V14.01,2013-11-15 09:27:00,
2013-11-15 04:29:00,33.6,-3.2,30.21,SW,225,0.0,0.0,20,0.00,,---,0.00,VWS V14.01,2013-11-15 09:29:00,
2013-11-15 04:31:00,33.6,-3.2,30.21,SW,225,0.0,0.0,20,0.00,,---,0.00,VWS V14.01,2013-11-15 09:31:00,
2013-11-15 04:32:00,33.6,-3.2,30.21,SW,225,0.0,0.0,20,0.00,,---,0.00,VWS V14.01,2013-11-15 09:32:00,
2013-11-15 04:34:00,33.6,-3.2,30.21,SW,225,0.0,0.0,20,0.00,,---,0.00,VWS V14.01,2013-11-15 09:34:00,
2013-11-15 04:36:00,33.6,-3.2,30.21,SW,225,0.0,0.0,20,0.00,,---,0.00,VWS V14.01,2013-11-15 09:36:00,
2013-11-15 04:37:00,33.6,-3.2,30.21,SW,225,0.0,0.0,20,0.00,,---,0.00,VWS V14.01,2013-11-15 09:37:00,
2013-11-15 04:38:00,33.6,-3.2,30.21,SW,225,0.0,0.0,20,0.00,,---,0.00,VWS V14.01,2013-11-15 09:38:00,
2013-11-15 04:39:00,33.6,-3.2,30.21,SW,225,0.0,0.0,20,0.00,,---,0.00,VWS V14.01,2013-11-15 09:39:00,
2013-11-15 04:42:00,33.6,-3.2,30.21,SW,225,0.0,0.0,20,0.00,,---,0.00,VWS V14.01,2013-11-15 09:42:00,
2013-11-15 04:43:00,33.6,-3.2,30.21,SW,225,0.0,0.0,20,0.00,,---,0.00,VWS V14.01,2013-11-15 09:43:00,
2013-11-15 04:44:00,33.6,-3.2,30.21,SW,225,0.0,0.0,20,0.00,,---,0.00,VWS V14.01,2013-11-15 09:44:00,
2013-11-15 04:45:00,33.6,-3.2,30.21,SW,225,0.0,0.0,20,0.00,,---,0.00,VWS V14.01,2013-11-15 09:45:00,
2013-11-15 04:47:00,33.6,-3.2,30.21,SW,225,0.0,0.0,20,0.00,,---,0.00,VWS V14.01,2013-11-15 09:47:00,
2013-11-15 04:48:00,33.6,-3.2,30.21,SW,225,0.0,0.0,20,0.00,,---,0.00,VWS V14.01,2013-11-15 09:48:00,
2013-11-15 04:49:00,33.4,-3.3,30.21,SW,225,0.0,0.0,20,0.00,,---,0.00,VWS V14.01,2013-11-15 09:49:00,
2013-11-15 04:50:00,33.4,-3.3,30.21,SW,225,0.0,0.0,20,0.00,,---,0.00,VWS V14.01,2013-11-15 09:50:00,
2013-11-15 04:52:00,33.4,-3.3,30.21,SW,225,0.0,0.0,20,0.00,,---,0.00,VWS V14.01,2013-11-15 09:52:00,
2013-11-15 04:53:00,33.4,-3.3,30.21,SW,225,0.0,0.0,20,0.00,,---,0.00,VWS V14.01,2013-11-15 09:53:00,
2013-11-15 04:54:00,33.4,-3.3,30.21,SW,225,0.0,0.0,20,0.00,,---,0.00,VWS V14.01,2013-11-15 09:54:00,
2013-11-15 04:55:00,33.4,-3.3,30.18,SW,225,0.0,0.0,20,0.00,,---,0.00,VWS V14.01,2013-11-15 09:55:00,
2013-11-15 04:57:00,33.4,-3.3,30.18,SW,225,0.0,0.0,20,0.00,,---,0.00,VWS V14.01,2013-11-15 09:57:00,
2013-11-15 04:58:00,33.3,-3.5,30.18,SW,225,0.0,0.0,20,0.00,,---,0.00,VWS V14.01,2013-11-15 09:58:00,
2013-11-15 04:59:00,33.3,-3.5,30.18,SW,225,0.0,0.0,20,0.00,,---,0.00,VWS V14.01,2013-11-15 09:59:00,
2013-11-15 05:00:00,33.3,-3.5,30.18,SW,225,0.0,0.0,20,0.00,,---,0.00,VWS V14.01,2013-11-15 10:00:00,
2013-11-15 05:02:00,33.3,-3.5,30.18,SW,225,0.0,0.0,20,0.00,,---,0.00,VWS V14.01,2013-11-15 10:02:00,
2013-11-15 05:03:00,33.4,-3.3,30.18,SW,225,0.0,0.0,20,0.00,,---,0.00,VWS V14.01,2013-11-15 10:03:00,
2013-11-15 05:04:00,33.4,-3.3,30.18,SW,225,0.0,0.0,20,0.00,,---,0.00,VWS V14.01,2013-11-15 10:04:00,
2013-11-15 05:05:00,33.4,-3.3,30.18,SW,225,0.0,0.0,20,0.00,,---,0.00,VWS V14.01,2013-11-15 10:05:00,
2013-11-15 05:07:00,33.4,-3.3,30.18,SW,225,0.0,0.0,20,0.00,,---,0.00,VWS V14.01,2013-11-15 10:07:00,
2013-11-15 05:08:00,33.4,-3.3,30.18,SW,225,0.0,0.0,20,0.00,,---,0.00,VWS V14.01,2013-11-15 10:08:00,
2013-11-15 05:09:00,33.4,-3.3,30.18,SW,225,0.0,0.0,20,0.00,,---,0.00,VWS V14.01,2013-11-15 10:09:00,
2013-11-15 05:10:00,33.4,-3.3,30.18,SW,225,0.0,0.0,20,0.00,,---,0.00,VWS V14.01,2013-11-15 10:10:00,
2013-11-15 05:11:00,33.4,-3.3,30.18,SW,225,0.0,0.0,20,0.00,,---,0.00,VWS V14.01,2013-11-15 10:11:00,
2013-11-15 05:12:00,33.4,-3.3,30.18,SW,225,0.0,0.0,20,0.00,,---,0.00,VWS V14.01,2013-11-15 10:12:00,
2013-11-15 05:14:00,33.3,-3.5,30.18,SW,225,0.0,0.0,20,0.00,,---,0.00,VWS V14.01,2013-11-15 10:14:00,
2013-11-15 05:15:00,33.3,-3.5,30.18,SW,225,0.0,0.0,20,0.00,,---,0.00,VWS V14.01,2013-11-15 10:15:00,
2013-11-15 05:16:00,33.3,-3.5,30.18,SW,225,0.0,0.0,20,0.00,,---,0.00,VWS V14.01,2013-11-15 10:16:00,
2013-11-15 05:18:00,33.3,-3.5,30.18,SW,225,0.0,0.0,20,0.00,,---,0.00,VWS V14.01,2013-11-15 10:18:00,
2013-11-15 05:19:00,33.3,-3.5,30.18,SW,225,0.0,0.0,20,0.00,,---,0.00,VWS V14.01,2013-11-15 10:19:00,
2013-11-15 05:20:00,33.3,-3.5,30.18,SW,225,0.0,0.0,20,0.00,,---,0.00,VWS V14.01,2013-11-15 10:20:00,
2013-11-15 05:21:00,33.3,-3.5,30.18,SW,225,0.0,0.0,20,0.00,,---,0.00,VWS V14.01,2013-11-15 10:21:00,
2013-11-15 05:23:00,33.3,-3.5,30.18,SW,225,0.0,0.0,20,0.00,,---,0.00,VWS V14.01,2013-11-15 10:23:00,
2013-11-15 05:24:00,33.3,-3.5,30.18,SW,225,0.0,0.0,20,0.00,,---,0.00,VWS V14.01,2013-11-15 10:24:00,
2013-11-15 05:25:00,33.3,-3.5,30.18,SW,225,0.0,0.0,20,0.00,,---,0.00,VWS V14.01,2013-11-15 10:25:00,
2013-11-15 05:26:00,33.3,-3.5,30.21,SW,225,0.0,0.0,20,0.00,,---,0.00,VWS V14.01,2013-11-15 10:26:00,
2013-11-15 05:28:00,33.3,-3.5,30.21,SW,225,0.0,0.0,20,0.00,,---,0.00,VWS V14.01,2013-11-15 10:28:00,
2013-11-15 05:29:00,33.3,-3.5,30.21,SW,225,0.0,0.0,20,0.00,,---,0.00,VWS V14.01,2013-11-15 10:29:00,
2013-11-15 05:30:00,33.3,-3.5,30.21,SW,225,0.0,0.0,20,0.00,,---,0.00,VWS V14.01,2013-11-15 10:30:00,
2013-11-15 05:31:00,33.1,-3.6,30.21,SW,225,0.0,0.0,20,0.00,,---,0.00,VWS V14.01,2013-11-15 10:31:00,
2013-11-15 05:33:00,33.1,-3.6,30.21,SW,225,0.0,0.0,20,0.00,,---,0.00,VWS V14.01,2013-11-15 10:33:00,
2013-11-15 05:34:00,32.9,-3.8,30.21,SW,225,0.0,0.0,20,0.00,,---,0.00,VWS V14.01,2013-11-15 10:34:00,
2013-11-15 05:35:00,32.9,-3.8,30.21,SW,225,0.0,0.0,20,0.00,,---,0.00,VWS V14.01,2013-11-15 10:35:00,
2013-11-15 05:36:00,32.9,-3.8,30.21,SW,225,0.0,0.0,20,0.00,,---,0.00,VWS V14.01,2013-11-15 10:36:00,
2013-11-15 05:38:00,33.1,-3.6,30.21,SW,225,0.0,0.0,20,0.00,,---,0.00,VWS V14.01,2013-11-15 10:38:00,
2013-11-15 05:40:00,33.1,-0.7,30.21,SW,225,0.0,0.0,23,0.00,,---,0.00,VWS V14.01,2013-11-15 10:40:00,
2013-11-15 05:41:00,33.1,-0.7,30.21,SW,225,0.0,0.0,23,0.00,,---,0.00,VWS V14.01,2013-11-15 10:41:00,
2013-11-15 05:42:00,33.1,-0.7,30.21,SW,225,0.0,0.0,23,0.00,,---,0.00,VWS V14.01,2013-11-15 10:42:00,
2013-11-15 05:43:00,33.1,-0.7,30.21,SW,225,0.0,0.0,23,0.00,,---,0.00,VWS V14.01,2013-11-15 10:43:00,
2013-11-15 05:45:00,33.1,-0.7,30.21,SW,225,0.0,0.0,23,0.00,,---,0.00,VWS V14.01,2013-11-15 10:45:00,
2013-11-15 05:46:00,33.1,-0.7,30.21,SW,225,0.0,0.0,23,0.00,,---,0.00,VWS V14.01,2013-11-15 10:46:00,
2013-11-15 05:47:00,33.1,-0.7,30.21,SW,225,0.0,0.0,23,0.00,,---,0.00,VWS V14.01,2013-11-15 10:47:00,
2013-11-15 05:48:00,33.1,-0.7,30.21,SW,225,0.0,0.0,23,0.00,,---,0.00,VWS V14.01,2013-11-15 10:48:00,
2013-11-15 05:50:00,33.1,-0.7,30.21,SW,225,0.0,0.0,23,0.00,,---,0.00,VWS V14.01,2013-11-15 10:50:00,
2013-11-15 05:51:00,33.1,-0.7,30.21,SW,225,0.0,0.0,23,0.00,,---,0.00,VWS V14.01,2013-11-15 10:51:00,
2013-11-15 05:53:00,33.1,-0.7,30.21,SW,225,0.0,0.0,23,0.00,,---,0.00,VWS V14.01,2013-11-15 10:53:00,
2013-11-15 05:55:00,33.1,-0.7,30.21,SW,225,0.0,0.0,23,0.00,,---,0.00,VWS V14.01,2013-11-15 10:55:00,
2013-11-15 05:56:00,32.9,-0.8,30.21,SW,225,0.0,0.0,23,0.00,,---,0.00,VWS V14.01,2013-11-15 10:56:00,
2013-11-15 05:58:00,33.1,-0.7,30.21,SW,225,0.0,0.0,23,0.00,,---,0.00,VWS V14.01,2013-11-15 10:58:00,
2013-11-15 05:59:00,33.1,-0.7,30.21,SW,225,0.0,0.0,23,0.00,,---,0.00,VWS V14.01,2013-11-15 10:59:00,
2013-11-15 06:01:00,32.9,-0.8,30.21,SW,225,0.0,0.0,23,0.00,,---,0.00,VWS V14.01,2013-11-15 11:01:00,
2013-11-15 06:02:00,32.9,-0.8,30.21,SSW,202,0.0,0.0,23,0.00,,---,0.00,VWS V14.01,2013-11-15 11:02:00,
2013-11-15 06:03:00,32.9,-0.8,30.21,SSW,202,0.0,0.0,23,0.00,,---,0.00,VWS V14.01,2013-11-15 11:03:00,
2013-11-15 06:04:00,32.9,-0.8,30.21,SSW,202,0.0,0.0,23,0.00,,---,0.00,VWS V14.01,2013-11-15 11:04:00,
2013-11-15 06:06:00,32.9,-0.8,30.21,SSW,202,0.0,0.0,23,0.00,,---,0.00,VWS V14.01,2013-11-15 11:06:00,
2013-11-15 06:07:00,32.9,-0.8,30.21,SSW,202,0.0,0.0,23,0.00,,---,0.00,VWS V14.01,2013-11-15 11:07:00,
2013-11-15 06:08:00,32.9,-0.8,30.21,SSW,202,0.0,0.0,23,0.00,,---,0.00,VWS V14.01,2013-11-15 11:08:00,
2013-11-15 06:09:00,32.9,-0.8,30.21,SSW,202,0.0,0.0,23,0.00,,---,0.00,VWS V14.01,2013-11-15 11:09:00,
2013-11-15 06:11:00,32.9,-0.8,30.21,SSW,202,0.0,0.0,23,0.00,,---,0.00,VWS V14.01,2013-11-15 11:11:00,
2013-11-15 06:12:00,32.9,-0.8,30.21,SSW,202,0.0,0.0,23,0.00,,---,0.00,VWS V14.01,2013-11-15 11:12:00,
2013-11-15 06:14:00,32.9,-0.8,30.21,SSW,202,0.0,0.0,23,0.00,,---,0.00,VWS V14.01,2013-11-15 11:14:00,
2013-11-15 06:16:00,32.9,-0.8,30.21,SSW,202,0.0,0.0,23,0.00,,---,0.00,VWS V14.01,2013-11-15 11:16:00,
2013-11-15 06:17:00,32.9,-0.8,30.21,SSW,202,0.0,0.0,23,0.00,,---,0.00,VWS V14.01,2013-11-15 11:17:00,
2013-11-15 06:19:00,32.9,-0.8,30.21,SSW,202,0.0,0.0,23,0.00,,---,0.00,VWS V14.01,2013-11-15 11:19:00,
2013-11-15 06:21:00,32.9,-0.8,30.21,SSW,202,0.0,0.0,23,0.00,,---,0.00,VWS V14.01,2013-11-15 11:21:00,
2013-11-15 06:22:00,32.9,-0.8,30.21,SSW,202,0.0,0.0,23,0.00,,---,0.00,VWS V14.01,2013-11-15 11:22:00,
2013-11-15 06:23:00,32.9,-0.8,30.21,SSW,202,0.0,0.0,23,0.00,,---,0.00,VWS V14.01,2013-11-15 11:23:00,
2013-11-15 06:24:00,32.9,-0.8,30.21,SSW,202,0.0,0.0,23,0.00,,---,0.00,VWS V14.01,2013-11-15 11:24:00,
2013-11-15 06:26:00,32.9,-0.8,30.21,SSW,202,0.0,0.0,23,0.00,,---,0.00,VWS V14.01,2013-11-15 11:26:00,
2013-11-15 06:27:00,32.9,-0.8,30.21,SSW,202,0.0,0.0,23,0.00,,---,0.00,VWS V14.01,2013-11-15 11:27:00,
2013-11-15 06:28:00,32.9,-0.8,30.21,SSW,202,0.0,0.0,23,0.00,,---,0.00,VWS V14.01,2013-11-15 11:28:00,
2013-11-15 06:29:00,32.9,-0.8,30.21,SSW,202,0.0,0.0,23,0.00,,---,0.00,VWS V14.01,2013-11-15 11:29:00,
2013-11-15 06:31:00,32.9,-0.8,30.21,SSW,202,0.0,0.0,23,0.00,,---,0.00,VWS V14.01,2013-11-15 11:31:00,
2013-11-15 06:32:00,32.9,-0.8,30.21,SSW,202,0.0,0.0,23,0.00,,---,0.00,VWS V14.01,2013-11-15 11:32:00,
2013-11-15 06:33:00,32.9,-0.8,30.21,SSW,202,0.0,0.0,23,0.00,,---,0.00,VWS V14.01,2013-11-15 11:33:00,
2013-11-15 06:34:00,32.9,-0.8,30.21,SSW,202,0.0,0.0,23,0.00,,---,0.00,VWS V14.01,2013-11-15 11:34:00,
2013-11-15 06:36:00,33.1,-0.7,30.21,SSW,202,0.0,0.0,23,0.00,,---,0.00,VWS V14.01,2013-11-15 11:36:00,
2013-11-15 06:37:00,33.1,-0.7,30.21,SSW,202,0.0,0.0,23,0.00,,---,0.00,VWS V14.01,2013-11-15 11:37:00,
2013-11-15 06:38:00,33.1,-0.7,30.21,SSW,202,0.0,0.0,23,0.00,,---,0.00,VWS V14.01,2013-11-15 11:38:00,
2013-11-15 06:39:00,32.9,-0.8,30.21,SSW,202,0.0,0.0,23,0.00,,---,0.00,VWS V14.01,2013-11-15 11:39:00,
2013-11-15 06:40:00,32.9,-0.8,30.21,SSW,202,0.0,0.0,23,0.00,,---,0.00,VWS V14.01,2013-11-15 11:40:00,
2013-11-15 06:41:00,32.9,-0.8,30.21,SSW,202,0.0,0.0,23,0.00,,---,0.00,VWS V14.01,2013-11-15 11:41:00,
2013-11-15 06:42:00,32.9,-0.8,30.21,SSW,202,0.0,0.0,23,0.00,,---,0.00,VWS V14.01,2013-11-15 11:42:00,
2013-11-15 06:43:00,33.1,-0.7,30.21,SSW,202,0.0,0.0,23,0.00,,---,0.00,VWS V14.01,2013-11-15 11:43:00,
2013-11-15 06:44:00,33.1,-0.7,30.21,SSW,202,0.0,0.0,23,0.00,,---,0.00,VWS V14.01,2013-11-15 11:44:00,
2013-11-15 06:45:00,33.1,-0.7,30.21,SSW,202,0.0,0.0,23,0.00,,---,0.00,VWS V14.01,2013-11-15 11:45:00,
2013-11-15 06:47:00,33.1,-0.7,30.21,SSW,202,0.0,0.0,23,0.00,,---,0.00,VWS V14.01,2013-11-15 11:47:00,
2013-11-15 06:48:00,33.1,-0.7,30.21,SSW,202,0.0,0.0,23,0.00,,---,0.00,VWS V14.01,2013-11-15 11:48:00,
2013-11-15 06:49:00,32.9,-0.8,30.21,SSW,202,0.0,0.0,23,0.00,,---,0.00,VWS V14.01,2013-11-15 11:49:00,
2013-11-15 06:50:00,33.1,-0.7,30.21,SSW,202,0.0,0.0,23,0.00,,---,0.00,VWS V14.01,2013-11-15 11:50:00,
2013-11-15 06:52:00,33.1,-0.7,30.21,SSW,202,0.0,0.0,23,0.00,,---,0.00,VWS V14.01,2013-11-15 11:52:00,
2013-11-15 06:53:00,33.1,-0.7,30.21,SSW,202,0.0,0.0,23,0.00,,---,0.00,VWS V14.01,2013-11-15 11:53:00,
2013-11-15 06:54:00,33.1,-0.7,30.21,SSW,202,0.0,0.0,23,0.00,,---,0.00,VWS V14.01,2013-11-15 11:54:00,
2013-11-15 06:55:00,33.1,-0.7,30.21,SSW,202,0.0,0.0,23,0.00,,---,0.00,VWS V14.01,2013-11-15 11:55:00,
2013-11-15 06:57:00,33.3,-0.5,30.21,SSW,202,0.0,0.0,23,0.00,,---,0.00,VWS V14.01,2013-11-15 11:57:00,
2013-11-15 06:58:00,33.3,-0.5,30.21,SSW,202,0.0,0.0,23,0.00,,---,0.00,VWS V14.01,2013-11-15 11:58:00,
2013-11-15 06:59:00,33.3,-0.5,30.21,SSW,202,0.0,0.0,23,0.00,,---,0.00,VWS V14.01,2013-11-15 11:59:00,
2013-11-15 07:01:00,33.3,-0.5,30.21,SSW,202,0.0,0.0,23,0.00,,---,0.00,VWS V14.01,2013-11-15 12:01:00,
2013-11-15 07:02:00,33.3,-0.5,30.21,SSW,202,0.0,0.0,23,0.00,,---,0.00,VWS V14.01,2013-11-15 12:02:00,
2013-11-15 07:03:00,33.4,-0.4,30.21,SSW,202,0.0,0.0,23,0.00,,---,0.00,VWS V14.01,2013-11-15 12:03:00,
2013-11-15 07:04:00,33.4,-0.4,30.21,SSW,202,0.0,0.0,23,0.00,,---,0.00,VWS V14.01,2013-11-15 12:04:00,
2013-11-15 07:06:00,33.6,-0.2,30.21,SSW,202,0.0,0.0,23,0.00,,---,0.00,VWS V14.01,2013-11-15 12:06:00,
2013-11-15 07:07:00,33.6,-0.2,30.21,SSW,202,0.0,0.0,23,0.00,,---,0.00,VWS V14.01,2013-11-15 12:07:00,
2013-11-15 07:08:00,33.6,-0.2,30.21,SSW,202,0.0,0.0,23,0.00,,---,0.00,VWS V14.01,2013-11-15 12:08:00,
2013-11-15 07:09:00,33.6,-0.2,30.21,SSW,202,0.0,0.0,23,0.00,,---,0.00,VWS V14.01,2013-11-15 12:09:00,
2013-11-15 07:11:00,33.8,-1.0,30.21,SSW,202,0.0,0.0,22,0.00,,---,0.00,VWS V14.01,2013-11-15 12:11:00,
2013-11-15 07:12:00,33.8,-1.0,30.21,SSW,202,0.0,0.0,22,0.00,,---,0.00,VWS V14.01,2013-11-15 12:12:00,
2013-11-15 07:14:00,34.0,-0.9,30.21,SSW,202,0.0,0.0,22,0.00,,---,0.00,VWS V14.01,2013-11-15 12:14:00,
2013-11-15 07:15:00,34.0,-0.9,30.21,SSW,202,0.0,0.0,22,0.00,,---,0.00,VWS V14.01,2013-11-15 12:15:00,
2013-11-15 07:16:00,34.0,-0.9,30.21,SSW,202,0.0,0.0,22,0.00,,---,0.00,VWS V14.01,2013-11-15 12:16:00,
2013-11-15 07:17:00,34.0,-0.9,30.21,SSW,202,0.0,0.0,22,0.00,,---,0.00,VWS V14.01,2013-11-15 12:17:00,
2013-11-15 07:19:00,34.2,-0.7,30.21,SSW,202,0.0,0.0,22,0.00,,---,0.00,VWS V14.01,2013-11-15 12:19:00,
2013-11-15 07:20:00,34.3,-0.6,30.21,SSW,202,0.0,0.0,22,0.00,,---,0.00,VWS V14.01,2013-11-15 12:20:00,
2013-11-15 07:21:00,34.5,-0.4,30.21,SSW,202,0.0,0.0,22,0.00,,---,0.00,VWS V14.01,2013-11-15 12:21:00,
2013-11-15 07:22:00,34.5,-0.4,30.21,SSW,202,0.0,0.0,22,0.00,,---,0.00,VWS V14.01,2013-11-15 12:22:00,
2013-11-15 07:24:00,34.5,-0.4,30.21,SSW,202,0.0,0.0,22,0.00,,---,0.00,VWS V14.01,2013-11-15 12:24:00,
2013-11-15 07:25:00,34.5,-0.4,30.21,SW,225,0.0,0.0,22,0.00,,---,0.00,VWS V14.01,2013-11-15 12:25:00,
2013-11-15 07:27:00,34.9,2.6,30.24,SW,225,0.0,0.0,25,0.00,,---,0.00,VWS V14.01,2013-11-15 12:27:00,
2013-11-15 07:29:00,35.1,2.8,30.24,SW,225,0.0,0.0,25,0.00,,---,0.00,VWS V14.01,2013-11-15 12:29:00,
2013-11-15 07:30:00,35.1,2.8,30.24,SW,225,0.0,0.0,25,0.00,,---,0.00,VWS V14.01,2013-11-15 12:30:00,
2013-11-15 07:32:00,35.6,2.4,30.24,SW,225,0.0,0.0,24,0.00,,---,0.00,VWS V14.01,2013-11-15 12:32:00,
2013-11-15 07:34:00,36.7,3.3,30.24,SW,225,0.0,0.0,24,0.00,,---,0.00,VWS V14.01,2013-11-15 12:34:00,
2013-11-15 07:35:00,36.7,3.3,30.24,SW,225,0.0,0.0,24,0.00,,---,0.00,VWS V14.01,2013-11-15 12:35:00,
2013-11-15 07:36:00,36.7,3.3,30.24,SW,225,0.0,0.0,24,0.00,,---,0.00,VWS V14.01,2013-11-15 12:36:00,
2013-11-15 07:37:00,36.7,3.3,30.24,SW,225,0.0,0.0,24,0.00,,---,0.00,VWS V14.01,2013-11-15 12:37:00,
2013-11-15 07:40:00,36.9,3.5,30.24,SW,225,0.0,0.0,24,0.00,,---,0.00,VWS V14.01,2013-11-15 12:40:00,
2013-11-15 07:41:00,36.9,3.5,30.21,SW,225,0.0,0.0,24,0.00,,---,0.00,VWS V14.01,2013-11-15 12:41:00,
2013-11-15 07:42:00,36.9,3.5,30.21,SW,225,0.0,0.0,24,0.00,,---,0.00,VWS V14.01,2013-11-15 12:42:00,
2013-11-15 07:45:00,36.9,3.5,30.21,SW,225,0.0,0.0,24,0.00,,---,0.00,VWS V14.01,2013-11-15 12:45:00,
2013-11-15 07:46:00,36.9,3.5,30.21,SW,225,0.0,0.0,24,0.00,,---,0.00,VWS V14.01,2013-11-15 12:46:00,
2013-11-15 07:47:00,36.9,3.5,30.21,SW,225,0.0,0.0,24,0.00,,---,0.00,VWS V14.01,2013-11-15 12:47:00,
2013-11-15 07:50:00,37.4,3.9,30.21,ESE,112,0.0,0.0,24,0.00,,---,0.00,VWS V14.01,2013-11-15 12:50:00,
2013-11-15 07:51:00,37.4,3.9,30.21,ESE,112,0.0,0.0,24,0.00,,---,0.00,VWS V14.01,2013-11-15 12:51:00,
2013-11-15 07:52:00,37.6,4.1,30.21,ESE,112,0.0,0.0,24,0.00,,---,0.00,VWS V14.01,2013-11-15 12:52:00,
2013-11-15 07:55:00,37.9,4.4,30.21,ESE,112,0.0,0.0,24,0.00,,---,0.00,VWS V14.01,2013-11-15 12:55:00,
2013-11-15 07:56:00,37.9,4.4,30.21,ESE,112,0.0,0.0,24,0.00,,---,0.00,VWS V14.01,2013-11-15 12:56:00,
2013-11-15 07:57:00,38.3,4.7,30.21,ESE,112,0.0,0.0,24,0.00,,---,0.00,VWS V14.01,2013-11-15 12:57:00,
2013-11-15 08:00:00,38.7,5.0,30.21,ESE,112,0.0,0.0,24,0.00,,---,0.00,VWS V14.01,2013-11-15 13:00:00,
2013-11-15 08:02:00,38.7,5.0,30.21,ESE,112,0.0,0.0,24,0.00,,---,0.00,VWS V14.01,2013-11-15 13:02:00,
2013-11-15 08:06:00,39.4,4.7,30.21,ESE,112,0.0,0.0,23,0.00,,---,0.00,VWS V14.01,2013-11-15 13:06:00,
2013-11-15 08:07:00,39.4,4.7,30.21,East,90,0.0,0.0,23,0.00,,---,0.00,VWS V14.01,2013-11-15 13:07:00,
2013-11-15 08:08:00,39.6,7.5,30.21,East,90,0.0,0.0,26,0.00,,---,0.00,VWS V14.01,2013-11-15 13:08:00,
2013-11-15 08:11:00,39.7,7.7,30.24,SSW,202,0.0,0.0,26,0.00,,---,0.00,VWS V14.01,2013-11-15 13:11:00,
2013-11-15 08:12:00,40.1,8.0,30.24,SSE,158,0.0,0.0,26,0.00,,---,0.00,VWS V14.01,2013-11-15 13:12:00,
2013-11-15 08:13:00,40.3,5.4,30.24,SSE,158,0.0,0.0,23,0.00,,---,0.00,VWS V14.01,2013-11-15 13:13:00,
2013-11-15 08:16:00,40.5,5.6,30.24,SSE,158,0.0,0.0,23,0.00,,---,0.00,VWS V14.01,2013-11-15 13:16:00,
2013-11-15 08:17:00,40.5,5.6,30.24,SSW,202,0.0,0.0,23,0.00,,---,0.00,VWS V14.01,2013-11-15 13:17:00,
2013-11-15 08:18:00,40.5,5.6,30.24,SSW,202,0.0,0.0,23,0.00,,---,0.00,VWS V14.01,2013-11-15 13:18:00,
2013-11-15 08:21:00,41.2,6.2,30.24,South,180,0.0,0.0,23,0.00,,---,0.00,VWS V14.01,2013-11-15 13:21:00,
2013-11-15 08:22:00,41.4,6.4,30.24,South,180,0.0,0.0,23,0.00,,---,0.00,VWS V14.01,2013-11-15 13:22:00,
2013-11-15 08:23:00,41.4,6.4,30.24,SSW,202,0.0,0.0,23,0.00,,---,0.00,VWS V14.01,2013-11-15 13:23:00,
2013-11-15 08:26:00,41.7,6.7,30.24,South,180,0.0,0.0,23,0.00,,---,0.00,VWS V14.01,2013-11-15 13:26:00,
2013-11-15 08:27:00,41.9,6.8,30.24,SSE,158,0.0,0.0,23,0.00,,---,0.00,VWS V14.01,2013-11-15 13:27:00,
2013-11-15 08:28:00,41.9,6.8,30.24,SSE,158,0.0,0.0,23,0.00,,---,0.00,VWS V14.01,2013-11-15 13:28:00,
2013-11-15 08:29:00,41.9,6.8,30.24,SSW,202,0.0,0.0,23,0.00,,---,0.00,VWS V14.01,2013-11-15 13:29:00,
2013-11-15 08:31:00,42.1,7.0,30.24,South,180,0.0,0.0,23,0.00,,---,0.00,VWS V14.01,2013-11-15 13:31:00,
2013-11-15 08:32:00,42.1,7.0,30.24,South,180,0.0,1.1,23,0.00,,---,0.00,VWS V14.01,2013-11-15 13:32:00,
2013-11-15 08:33:00,42.1,7.0,30.24,South,180,0.0,0.0,23,0.00,,---,0.00,VWS V14.01,2013-11-15 13:33:00,
2013-11-15 08:34:00,42.1,7.0,30.24,South,180,0.0,0.0,23,0.00,,---,0.00,VWS V14.01,2013-11-15 13:34:00,
2013-11-15 08:36:00,42.1,7.0,30.24,South,180,0.0,0.0,23,0.00,,---,0.00,VWS V14.01,2013-11-15 13:36:00,
2013-11-15 08:38:00,42.1,7.0,30.24,South,180,0.0,0.0,23,0.00,,---,0.00,VWS V14.01,2013-11-15 13:38:00,
2013-11-15 08:39:00,42.1,7.0,30.24,SSE,158,0.0,0.0,23,0.00,,---,0.00,VWS V14.01,2013-11-15 13:39:00,
2013-11-15 08:41:00,42.1,7.0,30.24,WSW,248,0.0,0.0,23,0.00,,---,0.00,VWS V14.01,2013-11-15 13:41:00,
2013-11-15 08:43:00,42.1,7.0,30.24,SSW,202,1.6,1.6,23,0.00,,---,0.00,VWS V14.01,2013-11-15 13:43:00,
2013-11-15 08:44:00,42.1,7.0,30.24,South,180,0.0,1.6,23,0.00,,---,0.00,VWS V14.01,2013-11-15 13:44:00,
2013-11-15 08:46:00,42.1,7.0,30.24,SW,225,0.0,0.0,23,0.00,,---,0.00,VWS V14.01,2013-11-15 13:46:00,
2013-11-15 08:48:00,42.1,7.0,30.24,WSW,248,1.1,1.1,23,0.00,,---,0.00,VWS V14.01,2013-11-15 13:48:00,
2013-11-15 08:49:00,42.1,7.0,30.24,SSW,202,0.0,1.1,23,0.00,,---,0.00,VWS V14.01,2013-11-15 13:49:00,
2013-11-15 08:52:00,42.1,7.0,30.24,SSE,158,0.0,0.0,23,0.00,,---,0.00,VWS V14.01,2013-11-15 13:52:00,
2013-11-15 08:53:00,42.1,7.0,30.24,SE,135,0.0,0.0,23,0.00,,---,0.00,VWS V14.01,2013-11-15 13:53:00,
2013-11-15 08:54:00,42.1,7.0,30.24,SE,135,0.0,0.0,23,0.00,,---,0.00,VWS V14.01,2013-11-15 13:54:00,
2013-11-15 08:57:00,42.1,7.0,30.24,SSE,158,0.9,0.9,23,0.00,,---,0.00,VWS V14.01,2013-11-15 13:57:00,
2013-11-15 08:58:00,42.1,7.0,30.24,SSE,158,0.0,0.0,23,0.00,,---,0.00,VWS V14.01,2013-11-15 13:58:00,
2013-11-15 08:59:00,42.1,7.0,30.24,SSE,158,0.0,0.0,23,0.00,,---,0.00,VWS V14.01,2013-11-15 13:59:00,
2013-11-15 09:02:00,46.0,7.2,30.24,SSW,202,0.0,0.0,20,0.00,,---,0.00,VWS V14.01,2013-11-15 14:02:00,
2013-11-15 09:04:00,46.0,7.2,30.24,South,180,0.0,0.0,20,0.00,,---,0.00,VWS V14.01,2013-11-15 14:04:00,
2013-11-15 09:07:00,46.0,7.2,30.24,SSW,202,2.5,2.5,20,0.00,,---,0.00,VWS V14.01,2013-11-15 14:07:00,
2013-11-15 09:09:00,46.0,7.2,30.24,SW,225,1.6,1.6,20,0.00,,---,0.00,VWS V14.01,2013-11-15 14:09:00,
2013-11-15 09:12:00,46.0,7.2,30.24,NNE,22,0.0,0.0,20,0.00,,---,0.00,VWS V14.01,2013-11-15 14:12:00,
2013-11-15 09:14:00,46.0,7.2,30.24,SW,225,2.7,2.7,20,0.00,,---,0.00,VWS V14.01,2013-11-15 14:14:00,
2013-11-15 09:15:00,46.0,7.2,30.24,SW,225,2.7,2.7,20,0.00,,---,0.00,VWS V14.01,2013-11-15 14:15:00,
2013-11-15 09:17:00,47.7,7.4,30.24,SE,135,2.7,2.7,19,0.00,,---,0.00,VWS V14.01,2013-11-15 14:17:00,
2013-11-15 09:19:00,47.8,7.6,30.24,West,270,2.9,2.9,19,0.00,,---,0.00,VWS V14.01,2013-11-15 14:19:00,
2013-11-15 09:20:00,47.8,7.6,30.24,SW,225,1.6,2.9,19,0.00,,---,0.00,VWS V14.01,2013-11-15 14:20:00,
2013-11-15 09:22:00,48.6,8.2,30.24,SW,225,2.2,2.2,19,0.00,,---,0.00,VWS V14.01,2013-11-15 14:22:00,
2013-11-15 09:24:00,48.7,8.3,30.24,South,180,2.7,2.7,19,0.00,,---,0.00,VWS V14.01,2013-11-15 14:24:00,
2013-11-15 09:25:00,48.7,8.3,30.24,WSW,248,2.0,2.0,19,0.00,,---,0.00,VWS V14.01,2013-11-15 14:25:00,
2013-11-15 09:26:00,49.1,8.6,30.24,SW,225,1.1,2.0,19,0.00,,---,0.00,VWS V14.01,2013-11-15 14:26:00,
2013-11-15 09:28:00,49.3,8.8,30.24,WSW,248,1.1,1.1,19,0.00,,---,0.00,VWS V14.01,2013-11-15 14:28:00,
2013-11-15 09:29:00,49.5,8.9,30.24,SSW,202,0.0,1.1,19,0.00,,---,0.00,VWS V14.01,2013-11-15 14:29:00,
2013-11-15 09:30:00,49.5,8.9,30.24,SSW,202,4.3,4.3,19,0.00,,---,0.00,VWS V14.01,2013-11-15 14:30:00,
2013-11-15 09:31:00,49.6,9.1,30.24,NNE,22,2.5,2.5,19,0.00,,---,0.00,VWS V14.01,2013-11-15 14:31:00,
2013-11-15 09:33:00,49.6,9.1,30.24,SSE,158,0.9,0.9,19,0.00,,---,0.00,VWS V14.01,2013-11-15 14:33:00,
2013-11-15 09:34:00,49.8,9.2,30.24,SSE,158,0.0,0.0,19,0.00,,---,0.00,VWS V14.01,2013-11-15 14:34:00,
2013-11-15 09:35:00,49.8,9.2,30.24,NE,45,0.0,0.0,19,0.00,,---,0.00,VWS V14.01,2013-11-15 14:35:00,
2013-11-15 09:36:00,50.0,9.4,30.24,WSW,248,0.0,0.0,19,0.00,,---,0.00,VWS V14.01,2013-11-15 14:36:00,
2013-11-15 09:38:00,50.0,9.4,30.24,SSE,158,1.6,1.6,19,0.00,,---,0.00,VWS V14.01,2013-11-15 14:38:00,
2013-11-15 09:39:00,49.6,9.1,30.24,SSW,202,1.6,1.6,19,0.00,,---,0.00,VWS V14.01,2013-11-15 14:39:00,
2013-11-15 09:40:00,49.6,9.1,30.24,SSE,158,0.0,0.0,19,0.00,,---,0.00,VWS V14.01,2013-11-15 14:40:00,
2013-11-15 09:41:00,49.6,9.1,30.24,East,90,0.0,0.0,19,0.00,,---,0.00,VWS V14.01,2013-11-15 14:41:00,
2013-11-15 09:42:00,50.2,9.5,30.24,South,180,0.0,0.0,19,0.00,,---,0.00,VWS V14.01,2013-11-15 14:42:00,
2013-11-15 09:43:00,50.2,9.5,30.24,West,270,2.2,2.2,19,0.00,,---,0.00,VWS V14.01,2013-11-15 14:43:00,
2013-11-15 09:45:00,50.2,9.5,30.24,ESE,112,0.0,1.6,19,0.00,,---,0.00,VWS V14.01,2013-11-15 14:45:00,
2013-11-15 09:46:00,50.2,9.5,30.24,SE,135,1.1,1.1,19,0.00,,---,0.00,VWS V14.01,2013-11-15 14:46:00,
2013-11-15 09:47:00,50.2,9.5,30.24,ESE,112,0.9,0.9,19,0.00,,---,0.00,VWS V14.01,2013-11-15 14:47:00,
2013-11-15 09:48:00,50.2,9.5,30.24,South,180,2.0,2.0,19,0.00,,---,0.00,VWS V14.01,2013-11-15 14:48:00,
2013-11-15 09:50:00,50.2,9.5,30.24,South,180,0.0,0.0,19,0.00,,---,0.00,VWS V14.01,2013-11-15 14:50:00,
2013-11-15 09:51:00,50.2,9.5,30.24,WSW,248,1.6,1.6,19,0.00,,---,0.00,VWS V14.01,2013-11-15 14:51:00,
2013-11-15 09:52:00,50.2,9.5,30.24,WSW,248,1.6,1.6,19,0.00,,---,0.00,VWS V14.01,2013-11-15 14:52:00,
2013-11-15 09:53:00,50.2,9.5,30.24,WSW,248,1.6,1.6,19,0.00,,---,0.00,VWS V14.01,2013-11-15 14:53:00,
2013-11-15 09:55:00,50.2,9.5,30.24,WNW,292,0.0,0.0,19,0.00,,---,0.00,VWS V14.01,2013-11-15 14:55:00,
2013-11-15 09:57:00,50.2,9.5,30.24,SE,135,2.2,2.2,19,0.00,,---,0.00,VWS V14.01,2013-11-15 14:57:00,
2013-11-15 09:58:00,50.2,9.5,30.24,WSW,248,0.0,0.0,19,0.00,,---,0.00,VWS V14.01,2013-11-15 14:58:00,
2013-11-15 10:00:00,50.2,9.5,30.24,SW,225,2.0,2.0,19,0.00,,---,0.00,VWS V14.01,2013-11-15 15:00:00,
2013-11-15 10:02:00,50.2,9.5,30.24,WNW,292,2.7,2.7,19,0.00,,---,0.00,VWS V14.01,2013-11-15 15:02:00,
2013-11-15 10:03:00,52.9,7.9,30.24,SW,225,1.6,1.6,16,0.00,,---,0.00,VWS V14.01,2013-11-15 15:03:00,
2013-11-15 10:05:00,52.9,7.9,30.24,WSW,248,2.2,3.6,16,0.00,,---,0.00,VWS V14.01,2013-11-15 15:05:00,
2013-11-15 10:07:00,52.9,7.9,30.24,West,270,2.5,2.5,16,0.00,,---,0.00,VWS V14.01,2013-11-15 15:07:00,
2013-11-15 10:08:00,52.9,7.9,30.24,West,270,2.5,2.5,16,0.00,,---,0.00,VWS V14.01,2013-11-15 15:08:00,
2013-11-15 10:09:00,52.9,7.9,30.24,West,270,2.5,2.5,16,0.00,,---,0.00,VWS V14.01,2013-11-15 15:09:00,
2013-11-15 10:10:00,53.2,8.2,30.24,ENE,68,1.3,1.3,16,0.00,,---,0.00,VWS V14.01,2013-11-15 15:10:00,
2013-11-15 10:12:00,53.4,8.4,30.24,West,270,2.9,2.9,16,0.00,,---,0.00,VWS V14.01,2013-11-15 15:12:00,
2013-11-15 10:13:00,53.4,8.4,30.24,WSW,248,2.7,2.7,16,0.00,,---,0.00,VWS V14.01,2013-11-15 15:13:00,
2013-11-15 10:14:00,53.4,8.4,30.24,SW,225,3.1,3.1,16,0.00,,---,0.00,VWS V14.01,2013-11-15 15:14:00,
2013-11-15 10:15:00,53.2,8.2,30.24,SW,225,1.6,1.6,16,0.00,,---,0.00,VWS V14.01,2013-11-15 15:15:00,
2013-11-15 10:17:00,53.2,8.2,30.24,NE,45,2.0,2.5,16,0.00,,---,0.00,VWS V14.01,2013-11-15 15:17:00,
2013-11-15 10:18:00,53.2,8.2,30.24,NE,45,2.0,2.0,16,0.00,,---,0.00,VWS V14.01,2013-11-15 15:18:00,
2013-11-15 10:19:00,53.2,8.2,30.24,SW,225,1.1,1.3,16,0.00,,---,0.00,VWS V14.01,2013-11-15 15:19:00,
2013-11-15 10:20:00,53.2,8.2,30.24,NNW,338,2.0,2.0,16,0.00,,---,0.00,VWS V14.01,2013-11-15 15:20:00,
2013-11-15 10:23:00,53.2,8.2,30.24,SE,135,0.0,0.9,16,0.00,,---,0.00,VWS V14.01,2013-11-15 15:23:00,
2013-11-15 10:24:00,53.2,8.2,30.24,NW,315,1.1,1.1,16,0.00,,---,0.00,VWS V14.01,2013-11-15 15:24:00,
2013-11-15 10:25:00,53.2,8.2,30.24,SW,225,1.3,1.3,16,0.00,,---,0.00,VWS V14.01,2013-11-15 15:25:00,
2013-11-15 10:26:00,54.1,7.5,30.24,SE,135,1.1,1.3,15,0.00,,---,0.00,VWS V14.01,2013-11-15 15:26:00,
2013-11-15 10:28:00,54.1,7.5,30.24,South,180,0.0,0.0,15,0.00,,---,0.00,VWS V14.01,2013-11-15 15:28:00,
2013-11-15 10:29:00,54.1,7.5,30.24,SSE,158,2.0,3.1,15,0.00,,---,0.00,VWS V14.01,2013-11-15 15:29:00,
2013-11-15 10:30:00,54.1,7.5,30.24,South,180,4.3,4.3,15,0.00,,---,0.00,VWS V14.01,2013-11-15 15:30:00,
2013-11-15 10:31:00,54.1,7.5,30.24,South,180,2.5,4.3,15,0.00,,---,0.00,VWS V14.01,2013-11-15 15:31:00,
2013-11-15 10:33:00,54.0,7.4,30.24,ESE,112,0.9,0.9,15,0.00,,---,0.00,VWS V14.01,2013-11-15 15:33:00,
2013-11-15 10:34:00,54.3,7.7,30.24,SSE,158,0.0,0.0,15,0.00,,---,0.00,VWS V14.01,2013-11-15 15:34:00,
2013-11-15 10:35:00,54.3,7.7,30.24,SSW,202,1.6,2.0,15,0.00,,---,0.00,VWS V14.01,2013-11-15 15:35:00,
2013-11-15 10:36:00,54.1,7.5,30.24,SSW,202,1.6,1.6,15,0.00,,---,0.00,VWS V14.01,2013-11-15 15:36:00,
2013-11-15 10:38:00,54.1,7.5,30.24,West,270,3.6,3.6,15,0.00,,---,0.00,VWS V14.01,2013-11-15 15:38:00,
2013-11-15 10:39:00,54.1,7.5,30.24,SW,225,3.4,3.6,15,0.00,,---,0.00,VWS V14.01,2013-11-15 15:39:00,
2013-11-15 10:40:00,54.5,7.8,30.24,SW,225,2.5,3.4,15,0.00,,---,0.00,VWS V14.01,2013-11-15 15:40:00,
2013-11-15 10:41:00,54.5,7.8,30.24,ENE,68,1.6,3.4,15,0.00,,---,0.00,VWS V14.01,2013-11-15 15:41:00,
2013-11-15 10:44:00,54.7,8.0,30.24,NE,45,0.0,0.0,15,0.00,,---,0.00,VWS V14.01,2013-11-15 15:44:00,
2013-11-15 10:46:00,54.7,8.0,30.24,NNW,338,2.7,2.7,15,0.00,,---,0.00,VWS V14.01,2013-11-15 15:46:00,
2013-11-15 10:49:00,54.7,8.0,30.24,South,180,0.0,0.0,15,0.00,,---,0.00,VWS V14.01,2013-11-15 15:49:00,
2013-11-15 10:51:00,54.7,8.0,30.24,South,180,2.0,2.0,15,0.00,,---,0.00,VWS V14.01,2013-11-15 15:51:00,
2013-11-15 10:54:00,54.7,8.0,30.24,South,180,2.0,2.0,15,0.00,,---,0.00,VWS V14.01,2013-11-15 15:54:00,
2013-11-15 10:55:00,54.7,8.0,30.24,West,270,2.7,2.7,15,0.00,,---,0.00,VWS V14.01,2013-11-15 15:55:00,
2013-11-15 10:56:00,54.7,8.0,30.21,SSE,158,1.3,1.3,15,0.00,,---,0.00,VWS V14.01,2013-11-15 15:56:00,
2013-11-15 10:57:00,54.7,8.0,30.21,SW,225,0.0,1.3,15,0.00,,---,0.00,VWS V14.01,2013-11-15 15:57:00,
2013-11-15 10:59:00,54.7,8.0,30.21,SW,225,0.0,0.0,15,0.00,,---,0.00,VWS V14.01,2013-11-15 15:59:00,
2013-11-15 11:00:00,54.7,8.0,30.21,ENE,68,1.1,1.1,15,0.00,,---,0.00,VWS V14.01,2013-11-15 16:00:00,
2013-11-15 11:01:00,54.7,8.0,30.21,NE,45,0.9,1.1,15,0.00,,---,0.00,VWS V14.01,2013-11-15 16:01:00,
2013-11-15 11:02:00,54.7,8.0,30.21,NE,45,0.9,1.1,15,0.00,,---,0.00,VWS V14.01,2013-11-15 16:02:00,
2013-11-15 11:05:00,54.7,8.0,30.21,SSW,202,0.9,0.9,15,0.00,,---,0.00,VWS V14.01,2013-11-15 16:05:00,
2013-11-15 11:06:00,54.7,8.0,30.21,SW,225,0.0,0.0,15,0.00,,---,0.00,VWS V14.01,2013-11-15 16:06:00,
2013-11-15 11:07:00,54.7,8.0,30.21,South,180,1.3,1.3,15,0.00,,---,0.00,VWS V14.01,2013-11-15 16:07:00,
2013-11-15 11:10:00,56.8,9.7,30.21,SSW,202,1.1,1.1,15,0.00,,---,0.00,VWS V14.01,2013-11-15 16:10:00,
2013-11-15 11:11:00,56.8,9.7,30.21,SW,225,0.0,1.1,15,0.00,,---,0.00,VWS V14.01,2013-11-15 16:11:00,
2013-11-15 11:12:00,56.8,9.7,30.21,East,90,0.0,0.0,15,0.00,,---,0.00,VWS V14.01,2013-11-15 16:12:00,
2013-11-15 11:15:00,56.8,9.7,30.21,South,180,0.0,0.0,15,0.00,,---,0.00,VWS V14.01,2013-11-15 16:15:00,
2013-11-15 11:16:00,56.8,9.7,30.21,SE,135,2.7,2.7,15,0.00,,---,0.00,VWS V14.01,2013-11-15 16:16:00,
2013-11-15 11:17:00,56.8,9.7,30.21,SE,135,2.7,2.7,15,0.00,,---,0.00,VWS V14.01,2013-11-15 16:17:00,
2013-11-15 11:18:00,56.8,9.7,30.21,SW,225,0.0,2.7,15,0.00,,---,0.00,VWS V14.01,2013-11-15 16:18:00,
2013-11-15 11:20:00,57.4,8.6,30.21,SW,225,2.5,2.5,14,0.00,,---,0.00,VWS V14.01,2013-11-15 16:20:00,
2013-11-15 11:21:00,57.4,8.6,30.21,WNW,292,1.1,2.5,14,0.00,,---,0.00,VWS V14.01,2013-11-15 16:21:00,
2013-11-15 11:22:00,57.4,8.6,30.21,WNW,292,0.0,1.1,14,0.00,,---,0.00,VWS V14.01,2013-11-15 16:22:00,
2013-11-15 11:23:00,57.4,8.6,30.21,SSE,158,2.5,2.5,14,0.00,,---,0.00,VWS V14.01,2013-11-15 16:23:00,
2013-11-15 11:25:00,57.6,8.7,30.21,South,180,0.0,0.0,14,0.00,,---,0.00,VWS V14.01,2013-11-15 16:25:00,
2013-11-15 11:26:00,57.4,8.6,30.21,SSW,202,0.0,0.0,14,0.00,,---,0.00,VWS V14.01,2013-11-15 16:26:00,
2013-11-15 11:27:00,57.4,8.6,30.21,WSW,248,0.0,0.0,14,0.00,,---,0.00,VWS V14.01,2013-11-15 16:27:00,
2013-11-15 11:28:00,57.2,8.4,30.21,NNW,338,0.0,0.0,14,0.00,,---,0.00,VWS V14.01,2013-11-15 16:28:00,
2013-11-15 11:30:00,57.2,8.4,30.21,NE,45,0.0,0.0,14,0.00,,---,0.00,VWS V14.01,2013-11-15 16:30:00,
2013-11-15 11:31:00,57.2,8.4,30.21,NE,45,0.0,0.0,14,0.00,,---,0.00,VWS V14.01,2013-11-15 16:31:00,
2013-11-15 11:32:00,57.2,8.4,30.21,SSW,202,2.5,2.5,14,0.00,,---,0.00,VWS V14.01,2013-11-15 16:32:00,
2013-11-15 11:33:00,57.2,8.4,30.21,SSW,202,0.9,0.9,14,0.00,,---,0.00,VWS V14.01,2013-11-15 16:33:00,
2013-11-15 11:35:00,57.2,8.4,30.21,SW,225,1.3,1.3,14,0.00,,---,0.00,VWS V14.01,2013-11-15 16:35:00,
2013-11-15 11:36:00,57.0,9.8,30.21,SE,135,0.0,0.0,15,0.00,,---,0.00,VWS V14.01,2013-11-15 16:36:00,
2013-11-15 11:37:00,57.0,9.8,30.21,SSE,158,2.9,2.9,15,0.00,,---,0.00,VWS V14.01,2013-11-15 16:37:00,
2013-11-15 11:38:00,57.0,9.8,30.21,SSE,158,2.2,2.9,15,0.00,,---,0.00,VWS V14.01,2013-11-15 16:38:00,
2013-11-15 11:40:00,56.8,9.7,30.21,South,180,0.0,0.0,15,0.00,,---,0.00,VWS V14.01,2013-11-15 16:40:00,
2013-11-15 11:41:00,57.0,9.8,30.21,SSE,158,0.0,0.0,15,0.00,,---,0.00,VWS V14.01,2013-11-15 16:41:00,
2013-11-15 11:42:00,57.0,9.8,30.21,East,90,0.0,0.0,15,0.00,,---,0.00,VWS V14.01,2013-11-15 16:42:00,
2013-11-15 11:43:00,57.0,9.8,30.21,East,90,0.0,0.0,15,0.00,,---,0.00,VWS V14.01,2013-11-15 16:43:00,
2013-11-15 11:46:00,57.2,8.4,30.21,SE,135,0.0,0.0,14,0.00,,---,0.00,VWS V14.01,2013-11-15 16:46:00,
2013-11-15 11:48:00,57.2,8.4,30.21,WSW,248,0.0,0.0,14,0.00,,---,0.00,VWS V14.01,2013-11-15 16:48:00,
2013-11-15 11:49:00,57.2,8.4,30.21,SSE,158,0.0,0.0,14,0.00,,---,0.00,VWS V14.01,2013-11-15 16:49:00,
2013-11-15 11:51:00,57.2,8.4,30.21,West,270,0.0,0.0,14,0.00,,---,0.00,VWS V14.01,2013-11-15 16:51:00,
2013-11-15 11:53:00,57.2,8.4,30.21,NNE,22,0.0,0.0,14,0.00,,---,0.00,VWS V14.01,2013-11-15 16:53:00,
2013-11-15 11:54:00,57.2,8.4,30.21,West,270,2.2,2.2,14,0.00,,---,0.00,VWS V14.01,2013-11-15 16:54:00,
2013-11-15 11:56:00,57.2,8.4,30.21,West,270,0.0,0.0,14,0.00,,---,0.00,VWS V14.01,2013-11-15 16:56:00,
2013-11-15 11:57:00,57.2,8.4,30.21,South,180,0.0,0.0,14,0.00,,---,0.00,VWS V14.01,2013-11-15 16:57:00,
2013-11-15 11:58:00,57.4,8.6,30.21,ENE,68,0.0,0.0,14,0.00,,---,0.00,VWS V14.01,2013-11-15 16:58:00,
2013-11-15 11:59:00,57.4,8.6,30.21,ENE,68,0.0,0.0,14,0.00,,---,0.00,VWS V14.01,2013-11-15 16:59:00,
2013-11-15 12:01:00,57.4,8.6,30.21,SW,225,0.0,0.0,14,0.00,,---,0.00,VWS V14.01,2013-11-15 17:01:00,
2013-11-15 12:02:00,57.4,8.6,30.21,West,270,0.0,0.0,14,0.00,,---,0.00,VWS V14.01,2013-11-15 17:02:00,
2013-11-15 12:03:00,57.4,8.6,30.21,South,180,0.0,0.0,14,0.00,,---,0.00,VWS V14.01,2013-11-15 17:03:00,
2013-11-15 12:04:00,57.4,8.6,30.21,SW,225,0.0,0.0,14,0.00,,---,0.00,VWS V14.01,2013-11-15 17:04:00,
2013-11-15 12:06:00,57.7,8.9,30.21,SSW,202,0.0,0.0,14,0.00,,---,0.00,VWS V14.01,2013-11-15 17:06:00,
2013-11-15 12:07:00,57.7,8.9,30.21,West,270,1.1,1.1,14,0.00,,---,0.00,VWS V14.01,2013-11-15 17:07:00,
2013-11-15 12:08:00,57.7,8.9,30.21,West,270,1.3,1.3,14,0.00,,---,0.00,VWS V14.01,2013-11-15 17:08:00,
2013-11-15 12:09:00,57.7,8.9,30.21,South,180,0.0,0.0,14,0.00,,---,0.00,VWS V14.01,2013-11-15 17:09:00,
2013-11-15 12:10:00,57.7,8.9,30.21,SSE,158,0.0,0.0,14,0.00,,---,0.00,VWS V14.01,2013-11-15 17:10:00,
2013-11-15 12:11:00,57.7,8.9,30.21,NW,315,0.0,0.0,14,0.00,,---,0.00,VWS V14.01,2013-11-15 17:11:00,
2013-11-15 12:12:00,57.9,9.0,30.21,South,180,0.0,0.0,14,0.00,,---,0.00,VWS V14.01,2013-11-15 17:12:00,
2013-11-15 12:13:00,57.9,9.0,30.21,South,180,0.0,0.0,14,0.00,,---,0.00,VWS V14.01,2013-11-15 17:13:00,
2013-11-15 12:14:00,57.9,9.0,30.21,South,180,0.0,0.0,14,0.00,,---,0.00,VWS V14.01,2013-11-15 17:14:00,
2013-11-15 12:15:00,57.7,8.9,30.21,SE,135,0.0,0.9,14,0.00,,---,0.00,VWS V14.01,2013-11-15 17:15:00,
2013-11-15 12:16:00,57.7,8.9,30.21,SSE,158,1.1,1.1,14,0.00,,---,0.00,VWS V14.01,2013-11-15 17:16:00,
2013-11-15 12:17:00,57.6,8.7,30.21,SE,135,0.0,1.3,14,0.00,,---,0.00,VWS V14.01,2013-11-15 17:17:00,
2013-11-15 12:18:00,57.6,8.7,30.21,SE,135,0.0,0.0,14,0.00,,---,0.00,VWS V14.01,2013-11-15 17:18:00,
2013-11-15 12:19:00,57.6,8.7,30.21,South,180,4.0,4.0,14,0.00,,---,0.00,VWS V14.01,2013-11-15 17:19:00,
2013-11-15 12:20:00,57.6,8.7,30.21,SSW,202,2.7,2.7,14,0.00,,---,0.00,VWS V14.01,2013-11-15 17:20:00,
2013-11-15 12:21:00,57.6,8.7,30.21,SSE,158,0.0,0.0,14,0.00,,---,0.00,VWS V14.01,2013-11-15 17:21:00,
2013-11-15 12:23:00,57.6,8.7,30.21,NW,315,1.3,2.9,14,0.00,,---,0.00,VWS V14.01,2013-11-15 17:23:00,
2013-11-15 12:24:00,57.6,8.7,30.21,NW,315,1.3,1.3,14,0.00,,---,0.00,VWS V14.01,2013-11-15 17:24:00,
2013-11-15 12:25:00,57.6,8.7,30.21,West,270,0.0,1.3,14,0.00,,---,0.00,VWS V14.01,2013-11-15 17:25:00,
2013-11-15 12:26:00,57.6,8.7,30.21,SSE,158,1.3,1.3,14,0.00,,---,0.00,VWS V14.01,2013-11-15 17:26:00,
2013-11-15 12:28:00,57.4,8.6,30.18,WNW,292,0.0,0.0,14,0.00,,---,0.00,VWS V14.01,2013-11-15 17:28:00,
2013-11-15 12:29:00,57.6,8.7,30.18,ESE,112,2.0,2.0,14,0.00,,---,0.00,VWS V14.01,2013-11-15 17:29:00,
2013-11-15 12:30:00,57.6,8.7,30.18,West,270,0.9,0.9,14,0.00,,---,0.00,VWS V14.01,2013-11-15 17:30:00,
2013-11-15 12:31:00,57.6,8.7,30.18,NW,315,0.0,0.9,14,0.00,,---,0.00,VWS V14.01,2013-11-15 17:31:00,
2013-11-15 12:34:00,57.6,8.7,30.18,ENE,68,0.9,2.7,14,0.00,,---,0.00,VWS V14.01,2013-11-15 17:34:00,
2013-11-15 12:35:00,57.6,8.7,30.18,SW,225,2.5,2.5,14,0.00,,---,0.00,VWS V14.01,2013-11-15 17:35:00,
2013-11-15 12:36:00,57.6,8.7,30.18,South,180,2.2,2.5,14,0.00,,---,0.00,VWS V14.01,2013-11-15 17:36:00,
2013-11-15 12:39:00,57.4,8.6,30.18,South,180,0.0,0.0,14,0.00,,---,0.00,VWS V14.01,2013-11-15 17:39:00,
2013-11-15 12:40:00,57.4,8.6,30.18,WSW,248,0.0,0.0,14,0.00,,---,0.00,VWS V14.01,2013-11-15 17:40:00,
2013-11-15 12:41:00,57.4,8.6,30.18,WSW,248,0.9,0.9,14,0.00,,---,0.00,VWS V14.01,2013-11-15 17:41:00,
2013-11-15 12:44:00,57.6,8.7,30.18,West,270,0.9,0.9,14,0.00,,---,0.00,VWS V14.01,2013-11-15 17:44:00,
2013-11-15 12:45:00,58.1,9.2,30.18,South,180,0.0,0.0,14,0.00,,---,0.00,VWS V14.01,2013-11-15 17:45:00,
2013-11-15 12:46:00,58.1,9.2,30.18,SE,135,1.3,1.3,14,0.00,,---,0.00,VWS V14.01,2013-11-15 17:46:00,
2013-11-15 12:49:00,58.5,9.5,30.18,SW,225,0.0,0.0,14,0.00,,---,0.00,VWS V14.01,2013-11-15 17:49:00,
2013-11-15 12:51:00,58.5,9.5,30.18,SW,225,1.3,2.2,14,0.00,,---,0.00,VWS V14.01,2013-11-15 17:51:00,
2013-11-15 12:54:00,58.5,9.5,30.18,SW,225,1.6,1.6,14,0.00,,---,0.00,VWS V14.01,2013-11-15 17:54:00,
2013-11-15 12:55:00,58.5,9.5,30.18,SW,225,1.6,1.6,14,0.00,,---,0.00,VWS V14.01,2013-11-15 17:55:00,
2013-11-15 12:56:00,58.8,9.8,30.18,SW,225,0.0,0.0,14,0.00,,---,0.00,VWS V14.01,2013-11-15 17:56:00,
2013-11-15 12:59:00,59.2,10.0,30.18,SW,225,0.9,1.3,14,0.00,,---,0.00,VWS V14.01,2013-11-15 17:59:00,
2013-11-15 13:00:00,59.2,10.0,30.18,SW,225,0.9,0.9,14,0.00,,---,0.00,VWS V14.01,2013-11-15 18:00:00,
2013-11-15 13:01:00,59.4,10.2,30.18,West,270,1.3,1.3,14,0.00,,---,0.00,VWS V14.01,2013-11-15 18:01:00,
2013-11-15 13:04:00,59.2,10.0,30.18,South,180,2.2,2.2,14,0.00,,---,0.00,VWS V14.01,2013-11-15 18:04:00,
2013-11-15 13:05:00,59.2,10.0,30.18,SSE,158,0.9,2.2,14,0.00,,---,0.00,VWS V14.01,2013-11-15 18:05:00,
2013-11-15 13:06:00,59.2,10.0,30.18,SW,225,1.1,1.1,14,0.00,,---,0.00,VWS V14.01,2013-11-15 18:06:00,
2013-11-15 13:07:00,59.2,10.0,30.18,SW,225,1.1,1.1,14,0.00,,---,0.00,VWS V14.01,2013-11-15 18:07:00,
2013-11-15 13:09:00,59.4,10.2,30.18,SE,135,2.0,2.5,14,0.00,,---,0.00,VWS V14.01,2013-11-15 18:09:00,
2013-11-15 13:10:00,59.4,10.2,30.18,SE,135,2.0,2.0,14,0.00,,---,0.00,VWS V14.01,2013-11-15 18:10:00,
2013-11-15 13:12:00,59.4,10.2,30.18,SSW,202,2.2,2.7,14,0.00,,---,0.00,VWS V14.01,2013-11-15 18:12:00,
2013-11-15 13:14:00,59.5,10.3,30.18,SSW,202,1.1,2.9,14,0.00,,---,0.00,VWS V14.01,2013-11-15 18:14:00,
2013-11-15 13:15:00,59.4,10.2,30.18,SE,135,0.0,1.1,14,0.00,,---,0.00,VWS V14.01,2013-11-15 18:15:00,
2013-11-15 13:17:00,59.5,10.3,30.18,South,180,0.0,0.0,14,0.00,,---,0.00,VWS V14.01,2013-11-15 18:17:00,
2013-11-15 13:20:00,59.7,10.5,30.18,SE,135,0.0,0.0,14,0.00,,---,0.00,VWS V14.01,2013-11-15 18:20:00,
2013-11-15 13:21:00,59.9,10.6,30.18,South,180,0.9,0.9,14,0.00,,---,0.00,VWS V14.01,2013-11-15 18:21:00,
2013-11-15 13:22:00,59.9,10.6,30.18,SSW,202,2.0,2.0,14,0.00,,---,0.00,VWS V14.01,2013-11-15 18:22:00,
2013-11-15 13:25:00,59.9,10.6,30.18,SSE,158,2.9,2.9,14,0.00,,---,0.00,VWS V14.01,2013-11-15 18:25:00,
2013-11-15 13:26:00,59.5,10.3,30.15,SSE,158,1.1,1.1,14,0.00,,---,0.00,VWS V14.01,2013-11-15 18:26:00,
2013-11-15 13:27:00,59.5,10.3,30.15,West,270,2.9,2.9,14,0.00,,---,0.00,VWS V14.01,2013-11-15 18:27:00,
2013-11-15 13:28:00,59.5,10.3,30.15,West,270,2.9,2.9,14,0.00,,---,0.00,VWS V14.01,2013-11-15 18:28:00,
2013-11-15 13:30:00,59.2,10.0,30.15,East,90,0.0,0.0,14,0.00,,---,0.00,VWS V14.01,2013-11-15 18:30:00,
2013-11-15 13:31:00,59.2,10.0,30.15,SW,225,0.0,1.1,14,0.00,,---,0.00,VWS V14.01,2013-11-15 18:31:00,
2013-11-15 13:32:00,59.4,10.2,30.15,East,90,0.0,0.0,14,0.00,,---,0.00,VWS V14.01,2013-11-15 18:32:00,
2013-11-15 13:33:00,59.4,10.2,30.15,SE,135,0.0,0.0,14,0.00,,---,0.00,VWS V14.01,2013-11-15 18:33:00,
2013-11-15 13:35:00,59.4,10.2,30.15,SSE,158,2.2,2.2,14,0.00,,---,0.00,VWS V14.01,2013-11-15 18:35:00,
2013-11-15 13:36:00,59.7,10.5,30.15,WSW,248,0.0,0.0,14,0.00,,---,0.00,VWS V14.01,2013-11-15 18:36:00,
2013-11-15 13:38:00,59.7,10.5,30.15,WNW,292,2.9,2.9,14,0.00,,---,0.00,VWS V14.01,2013-11-15 18:38:00,
2013-11-15 13:40:00,60.1,10.8,30.15,South,180,2.2,2.2,14,0.00,,---,0.00,VWS V14.01,2013-11-15 18:40:00,
2013-11-15 13:41:00,60.1,10.8,30.18,WSW,248,0.0,2.0,14,0.00,,---,0.00,VWS V14.01,2013-11-15 18:41:00,
2013-11-15 13:42:00,60.1,10.8,30.18,WSW,248,0.0,2.0,14,0.00,,---,0.00,VWS V14.01,2013-11-15 18:42:00,
2013-11-15 13:43:00,60.1,10.8,30.18,NNE,22,0.0,0.0,14,0.00,,---,0.00,VWS V14.01,2013-11-15 18:43:00,
2013-11-15 13:45:00,60.1,10.8,30.18,South,180,1.3,1.3,14,0.00,,---,0.00,VWS V14.01,2013-11-15 18:45:00,
2013-11-15 13:46:00,60.1,10.8,30.18,South,180,1.1,2.7,14,0.00,,---,0.00,VWS V14.01,2013-11-15 18:46:00,
2013-11-15 13:47:00,60.1,10.8,30.18,South,180,1.1,2.7,14,0.00,,---,0.00,VWS V14.01,2013-11-15 18:47:00,
2013-11-15 13:48:00,60.1,10.8,30.18,WSW,248,2.2,2.2,14,0.00,,---,0.00,VWS V14.01,2013-11-15 18:48:00,
2013-11-15 13:50:00,60.1,10.8,30.18,WNW,292,1.1,1.1,14,0.00,,---,0.00,VWS V14.01,2013-11-15 18:50:00,
2013-11-15 13:51:00,60.1,10.8,30.18,South,180,0.9,2.0,14,0.00,,---,0.00,VWS V14.01,2013-11-15 18:51:00,
2013-11-15 13:52:00,60.1,10.8,30.18,South,180,0.9,2.0,14,0.00,,---,0.00,VWS V14.01,2013-11-15 18:52:00,
2013-11-15 13:53:00,60.1,10.8,30.18,NNE,22,0.0,0.0,14,0.00,,---,0.00,VWS V14.01,2013-11-15 18:53:00,
2013-11-15 13:54:00,60.1,10.8,30.18,NNW,338,0.0,0.0,14,0.00,,---,0.00,VWS V14.01,2013-11-15 18:54:00,
2013-11-15 13:55:00,60.1,10.8,30.18,South,180,1.3,1.3,14,0.00,,---,0.00,VWS V14.01,2013-11-15 18:55:00,
2013-11-15 13:57:00,60.1,10.8,30.18,South,180,1.1,1.1,14,0.00,,---,0.00,VWS V14.01,2013-11-15 18:57:00,
2013-11-15 13:58:00,60.1,10.8,30.18,WNW,292,1.3,2.0,14,0.00,,---,0.00,VWS V14.01,2013-11-15 18:58:00,
2013-11-15 13:59:00,60.6,11.2,30.18,WNW,292,1.3,1.3,14,0.00,,---,0.00,VWS V14.01,2013-11-15 18:59:00,
2013-11-15 14:00:00,60.6,11.2,30.18,South,180,2.9,2.9,14,0.00,,---,0.00,VWS V14.01,2013-11-15 19:00:00,
2013-11-15 14:02:00,60.4,11.0,30.18,WSW,248,1.3,2.5,14,0.00,,---,0.00,VWS V14.01,2013-11-15 19:02:00,
2013-11-15 14:03:00,60.4,11.0,30.18,NNE,22,0.0,1.3,14,0.00,,---,0.00,VWS V14.01,2013-11-15 19:03:00,
2013-11-15 14:04:00,60.4,11.0,30.18,West,270,2.0,2.0,14,0.00,,---,0.00,VWS V14.01,2013-11-15 19:04:00,
2013-11-15 14:06:00,60.6,11.2,30.18,SSW,202,2.5,2.5,14,0.00,,---,0.00,VWS V14.01,2013-11-15 19:06:00,
2013-11-15 14:07:00,60.8,11.3,30.18,SSE,158,2.9,2.9,14,0.00,,---,0.00,VWS V14.01,2013-11-15 19:07:00,
2013-11-15 14:09:00,60.6,11.2,30.18,South,180,0.0,1.6,14,0.00,,---,0.00,VWS V14.01,2013-11-15 19:09:00,
2013-11-15 14:10:00,60.4,11.0,30.18,East,90,0.0,0.0,14,0.00,,---,0.00,VWS V14.01,2013-11-15 19:10:00,
2013-11-15 14:12:00,60.4,11.0,30.18,WSW,248,0.0,0.0,14,0.00,,---,0.00,VWS V14.01,2013-11-15 19:12:00,
2013-11-15 14:13:00,60.4,11.0,30.18,WSW,248,0.0,0.0,14,0.00,,---,0.00,VWS V14.01,2013-11-15 19:13:00,
2013-11-15 14:14:00,60.1,10.8,30.18,SE,135,0.0,0.0,14,0.00,,---,0.00,VWS V14.01,2013-11-15 19:14:00,
2013-11-15 14:15:00,59.7,10.5,30.18,West,270,0.0,0.0,14,0.00,,---,0.00,VWS V14.01,2013-11-15 19:15:00,
2013-11-15 14:16:00,59.7,10.5,30.18,WNW,292,0.0,0.0,14,0.00,,---,0.00,VWS V14.01,2013-11-15 19:16:00,
2013-11-15 14:17:00,59.7,10.5,30.18,SSW,202,0.0,0.0,14,0.00,,---,0.00,VWS V14.01,2013-11-15 19:17:00,
2013-11-15 14:18:00,59.7,10.5,30.18,SSW,202,0.0,0.0,14,0.00,,---,0.00,VWS V14.01,2013-11-15 19:18:00,
2013-11-15 14:19:00,59.5,10.3,30.18,SSW,202,0.0,0.0,14,0.00,,---,0.00,VWS V14.01,2013-11-15 19:19:00,
2013-11-15 14:20:00,59.5,10.3,30.18,SSE,158,0.0,1.1,14,0.00,,---,0.00,VWS V14.01,2013-11-15 19:20:00,
2013-11-15 14:21:00,59.5,10.3,30.18,ENE,68,0.0,0.0,14,0.00,,---,0.00,VWS V14.01,2013-11-15 19:21:00,
2013-11-15 14:22:00,59.4,10.2,30.18,SSW,202,0.0,0.0,14,0.00,,---,0.00,VWS V14.01,2013-11-15 19:22:00,
2013-11-15 14:24:00,59.2,10.0,30.18,SW,225,0.0,0.0,14,0.00,,---,0.00,VWS V14.01,2013-11-15 19:24:00,
2013-11-15 14:25:00,59.2,10.0,30.18,NNE,22,0.0,0.0,14,0.00,,---,0.00,VWS V14.01,2013-11-15 19:25:00,
2013-11-15 14:26:00,59.2,10.0,30.15,NNE,22,0.0,0.0,14,0.00,,---,0.00,VWS V14.01,2013-11-15 19:26:00,
2013-11-15 14:28:00,59.2,10.0,30.15,SE,135,0.0,0.0,14,0.00,,---,0.00,VWS V14.01,2013-11-15 19:28:00,
2013-11-15 14:29:00,59.2,10.0,30.15,SW,225,0.0,0.0,14,0.00,,---,0.00,VWS V14.01,2013-11-15 19:29:00,
2013-11-15 14:30:00,59.2,10.0,30.15,SE,135,0.0,0.0,14,0.00,,---,0.00,VWS V14.01,2013-11-15 19:30:00,
2013-11-15 14:31:00,59.2,10.0,30.15,NE,45,0.0,0.0,14,0.00,,---,0.00,VWS V14.01,2013-11-15 19:31:00,
2013-11-15 14:33:00,59.2,10.0,30.15,SSE,158,0.0,0.0,14,0.00,,---,0.00,VWS V14.01,2013-11-15 19:33:00,
2013-11-15 14:34:00,59.4,10.2,30.15,SSE,158,0.0,0.0,14,0.00,,---,0.00,VWS V14.01,2013-11-15 19:34:00,
2013-11-15 14:35:00,59.4,10.2,30.15,SSE,158,0.0,0.0,14,0.00,,---,0.00,VWS V14.01,2013-11-15 19:35:00,
2013-11-15 14:36:00,59.4,10.2,30.15,South,180,0.0,0.0,14,0.00,,---,0.00,VWS V14.01,2013-11-15 19:36:00,
2013-11-15 14:38:00,59.4,10.2,30.15,South,180,1.6,1.6,14,0.00,,---,0.00,VWS V14.01,2013-11-15 19:38:00,
2013-11-15 14:39:00,59.0,9.9,30.15,SSW,202,1.3,1.3,14,0.00,,---,0.00,VWS V14.01,2013-11-15 19:39:00,
2013-11-15 14:40:00,59.0,9.9,30.15,SSW,202,1.3,1.3,14,0.00,,---,0.00,VWS V14.01,2013-11-15 19:40:00,
2013-11-15 14:41:00,59.0,9.9,30.15,SW,225,0.0,0.0,14,0.00,,---,0.00,VWS V14.01,2013-11-15 19:41:00,
2013-11-15 14:43:00,59.0,9.9,30.15,SSW,202,0.0,0.0,14,0.00,,---,0.00,VWS V14.01,2013-11-15 19:43:00,
2013-11-15 14:45:00,59.0,9.9,30.15,South,180,0.0,0.0,14,0.00,,---,0.00,VWS V14.01,2013-11-15 19:45:00,
2013-11-15 14:46:00,59.0,9.9,30.15,West,270,0.0,0.0,14,0.00,,---,0.00,VWS V14.01,2013-11-15 19:46:00,
2013-11-15 14:48:00,59.0,9.9,30.15,SE,135,0.0,2.2,14,0.00,,---,0.00,VWS V14.01,2013-11-15 19:48:00,
2013-11-15 14:50:00,59.0,9.9,30.15,SSE,158,1.1,1.1,14,0.00,,---,0.00,VWS V14.01,2013-11-15 19:50:00,
2013-11-15 14:51:00,57.9,9.0,30.15,ESE,112,1.3,1.3,14,0.00,,---,0.00,VWS V14.01,2013-11-15 19:51:00,
2013-11-15 14:52:00,57.9,9.0,30.15,NE,45,0.0,0.0,14,0.00,,---,0.00,VWS V14.01,2013-11-15 19:52:00,
2013-11-15 14:53:00,57.7,8.9,30.15,WSW,248,0.0,0.0,14,0.00,,---,0.00,VWS V14.01,2013-11-15 19:53:00,
2013-11-15 14:55:00,57.7,8.9,30.15,SSW,202,0.0,0.0,14,0.00,,---,0.00,VWS V14.01,2013-11-15 19:55:00,
2013-11-15 14:56:00,57.6,8.7,30.15,West,270,0.0,0.0,14,0.00,,---,0.00,VWS V14.01,2013-11-15 19:56:00,
2013-11-15 14:57:00,57.6,8.7,30.15,SSW,202,1.1,1.1,14,0.00,,---,0.00,VWS V14.01,2013-11-15 19:57:00,
2013-11-15 14:58:00,57.6,8.7,30.15,WSW,248,2.2,2.2,14,0.00,,---,0.00,VWS V14.01,2013-11-15 19:58:00,
2013-11-15 15:00:00,57.2,8.4,30.15,West,270,2.7,2.7,14,0.00,,---,0.00,VWS V14.01,2013-11-15 20:00:00,
2013-11-15 15:01:00,57.2,8.4,30.15,East,90,1.3,1.3,14,0.00,,---,0.00,VWS V14.01,2013-11-15 20:01:00,
2013-11-15 15:02:00,57.2,8.4,30.15,SE,135,0.0,0.0,14,0.00,,---,0.00,VWS V14.01,2013-11-15 20:02:00,
2013-11-15 15:05:00,56.8,9.7,30.15,East,90,0.0,0.0,15,0.00,,---,0.00,VWS V14.01,2013-11-15 20:05:00,
2013-11-15 15:06:00,56.8,9.7,30.15,East,90,0.0,0.0,15,0.00,,---,0.00,VWS V14.01,2013-11-15 20:06:00,
2013-11-15 15:07:00,56.8,9.7,30.15,WSW,248,0.0,0.0,15,0.00,,---,0.00,VWS V14.01,2013-11-15 20:07:00,
2013-11-15 15:10:00,56.7,9.6,30.15,SSE,158,0.0,0.0,15,0.00,,---,0.00,VWS V14.01,2013-11-15 20:10:00,
2013-11-15 15:11:00,56.7,9.6,30.15,South,180,0.0,0.0,15,0.00,,---,0.00,VWS V14.01,2013-11-15 20:11:00,
2013-11-15 15:12:00,56.7,9.6,30.15,SSW,202,0.0,0.0,15,0.00,,---,0.00,VWS V14.01,2013-11-15 20:12:00,
2013-11-15 15:15:00,56.5,9.4,30.15,SSE,158,0.9,0.9,15,0.00,,---,0.00,VWS V14.01,2013-11-15 20:15:00,
2013-11-15 15:16:00,56.5,9.4,30.15,SSE,158,0.9,0.9,15,0.00,,---,0.00,VWS V14.01,2013-11-15 20:16:00,
2013-11-15 15:17:00,56.5,9.4,30.15,South,180,0.0,0.0,15,0.00,,---,0.00,VWS V14.01,2013-11-15 20:17:00,
2013-11-15 15:20:00,56.5,9.4,30.15,SE,135,1.1,1.1,15,0.00,,---,0.00,VWS V14.01,2013-11-15 20:20:00,
2013-11-15 15:21:00,56.5,9.4,30.15,SE,135,0.0,0.0,15,0.00,,---,0.00,VWS V14.01,2013-11-15 20:21:00,
2013-11-15 15:22:00,56.5,9.4,30.15,SE,135,0.0,0.0,15,0.00,,---,0.00,VWS V14.01,2013-11-15 20:22:00,
2013-11-15 15:25:00,56.3,9.3,30.15,SE,135,0.0,0.0,15,0.00,,---,0.00,VWS V14.01,2013-11-15 20:25:00,
2013-11-15 15:26:00,56.3,9.3,30.15,SE,135,0.0,0.0,15,0.00,,---,0.00,VWS V14.01,2013-11-15 20:26:00,
2013-11-15 15:27:00,56.3,9.3,30.15,SSE,158,0.0,2.5,15,0.00,,---,0.00,VWS V14.01,2013-11-15 20:27:00,
2013-11-15 15:28:00,56.3,9.3,30.15,SSE,158,0.0,2.5,15,0.00,,---,0.00,VWS V14.01,2013-11-15 20:28:00,
2013-11-15 15:31:00,56.3,9.3,30.15,South,180,0.0,0.0,15,0.00,,---,0.00,VWS V14.01,2013-11-15 20:31:00,
2013-11-15 15:32:00,56.3,9.3,30.15,SSW,202,0.0,0.0,15,0.00,,---,0.00,VWS V14.01,2013-11-15 20:32:00,
2013-11-15 15:33:00,56.3,9.3,30.15,SSE,158,0.0,0.0,15,0.00,,---,0.00,VWS V14.01,2013-11-15 20:33:00,
2013-11-15 15:36:00,56.3,9.3,30.15,SE,135,0.9,0.9,15,0.00,,---,0.00,VWS V14.01,2013-11-15 20:36:00,
2013-11-15 15:37:00,55.8,8.8,30.15,South,180,0.0,0.0,15,0.00,,---,0.00,VWS V14.01,2013-11-15 20:37:00,
2013-11-15 15:38:00,55.8,8.8,30.15,South,180,0.0,0.0,15,0.00,,---,0.00,VWS V14.01,2013-11-15 20:38:00,
2013-11-15 15:41:00,55.6,8.7,30.18,ENE,68,0.0,0.0,15,0.00,,---,0.00,VWS V14.01,2013-11-15 20:41:00,
2013-11-15 15:42:00,55.6,8.7,30.18,ENE,68,0.0,0.0,15,0.00,,---,0.00,VWS V14.01,2013-11-15 20:42:00,
2013-11-15 15:43:00,55.6,8.7,30.18,ENE,68,0.0,0.0,15,0.00,,---,0.00,VWS V14.01,2013-11-15 20:43:00,
2013-11-15 15:46:00,55.4,8.5,30.18,East,90,0.0,0.0,15,0.00,,---,0.00,VWS V14.01,2013-11-15 20:46:00,
2013-11-15 15:47:00,55.4,8.5,30.18,East,90,0.0,0.0,15,0.00,,---,0.00,VWS V14.01,2013-11-15 20:47:00,
2013-11-15 15:48:00,55.4,8.5,30.18,East,90,0.0,0.0,15,0.00,,---,0.00,VWS V14.01,2013-11-15 20:48:00,
2013-11-15 15:49:00,55.4,8.5,30.18,East,90,0.0,0.0,15,0.00,,---,0.00,VWS V14.01,2013-11-15 20:49:00,
2013-11-15 15:51:00,55.4,8.5,30.18,East,90,0.0,0.0,15,0.00,,---,0.00,VWS V14.01,2013-11-15 20:51:00,
2013-11-15 15:52:00,55.4,8.5,30.18,East,90,0.0,0.0,15,0.00,,---,0.00,VWS V14.01,2013-11-15 20:52:00,
2013-11-15 15:53:00,55.4,8.5,30.18,East,90,0.0,0.0,15,0.00,,---,0.00,VWS V14.01,2013-11-15 20:53:00,
2013-11-15 15:54:00,55.0,8.2,30.18,East,90,0.0,0.0,15,0.00,,---,0.00,VWS V14.01,2013-11-15 20:54:00,
2013-11-15 15:56:00,55.0,8.2,30.18,East,90,0.0,0.0,15,0.00,,---,0.00,VWS V14.01,2013-11-15 20:56:00,
2013-11-15 15:57:00,55.0,8.2,30.18,East,90,0.0,0.0,15,0.00,,---,0.00,VWS V14.01,2013-11-15 20:57:00,
2013-11-15 15:58:00,55.0,8.2,30.18,East,90,0.0,0.0,15,0.00,,---,0.00,VWS V14.01,2013-11-15 20:58:00,
2013-11-15 15:59:00,54.7,8.0,30.18,East,90,0.0,0.0,15,0.00,,---,0.00,VWS V14.01,2013-11-15 20:59:00,
2013-11-15 16:01:00,54.7,8.0,30.18,East,90,0.0,0.0,15,0.00,,---,0.00,VWS V14.01,2013-11-15 21:01:00,
2013-11-15 16:02:00,54.7,8.0,30.18,East,90,0.0,0.0,15,0.00,,---,0.00,VWS V14.01,2013-11-15 21:02:00,
2013-11-15 16:03:00,54.5,7.8,30.18,East,90,0.0,0.0,15,0.00,,---,0.00,VWS V14.01,2013-11-15 21:03:00,
2013-11-15 16:05:00,54.5,7.8,30.18,East,90,0.0,0.0,15,0.00,,---,0.00,VWS V14.01,2013-11-15 21:05:00,
2013-11-15 16:06:00,54.5,7.8,30.18,East,90,0.0,0.0,15,0.00,,---,0.00,VWS V14.01,2013-11-15 21:06:00,
2013-11-15 16:07:00,54.5,7.8,30.18,East,90,0.0,0.0,15,0.00,,---,0.00,VWS V14.01,2013-11-15 21:07:00,
2013-11-15 16:08:00,54.5,7.8,30.18,East,90,0.0,0.0,15,0.00,,---,0.00,VWS V14.01,2013-11-15 21:08:00,
2013-11-15 16:11:00,54.5,7.8,30.18,East,90,0.0,0.0,15,0.00,,---,0.00,VWS V14.01,2013-11-15 21:11:00,
2013-11-15 16:12:00,54.5,7.8,30.18,East,90,0.0,0.0,15,0.00,,---,0.00,VWS V14.01,2013-11-15 21:12:00,
2013-11-15 16:13:00,54.5,7.8,30.18,East,90,0.0,0.0,15,0.00,,---,0.00,VWS V14.01,2013-11-15 21:13:00,
2013-11-15 16:14:00,54.0,7.4,30.18,East,90,0.0,0.0,15,0.00,,---,0.00,VWS V14.01,2013-11-15 21:14:00,
2013-11-15 16:16:00,54.0,7.4,30.18,East,90,0.0,0.0,15,0.00,,---,0.00,VWS V14.01,2013-11-15 21:16:00,
2013-11-15 16:17:00,54.0,7.4,30.18,East,90,0.0,0.0,15,0.00,,---,0.00,VWS V14.01,2013-11-15 21:17:00,
2013-11-15 16:18:00,53.8,7.2,30.18,East,90,0.0,0.0,15,0.00,,---,0.00,VWS V14.01,2013-11-15 21:18:00,
2013-11-15 16:19:00,53.6,7.1,30.18,East,90,0.0,0.0,15,0.00,,---,0.00,VWS V14.01,2013-11-15 21:19:00,
2013-11-15 16:21:00,53.6,7.1,30.18,East,90,0.0,0.0,15,0.00,,---,0.00,VWS V14.01,2013-11-15 21:21:00,
2013-11-15 16:22:00,53.6,7.1,30.18,East,90,0.0,0.0,15,0.00,,---,0.00,VWS V14.01,2013-11-15 21:22:00,
2013-11-15 16:23:00,53.4,8.4,30.18,East,90,0.0,0.0,16,0.00,,---,0.00,VWS V14.01,2013-11-15 21:23:00,
2013-11-15 16:24:00,53.2,8.2,30.18,East,90,0.0,0.0,16,0.00,,---,0.00,VWS V14.01,2013-11-15 21:24:00,
2013-11-15 16:26:00,53.2,8.2,30.18,East,90,0.0,0.0,16,0.00,,---,0.00,VWS V14.01,2013-11-15 21:26:00,
2013-11-15 16:27:00,53.2,8.2,30.18,East,90,0.0,0.0,16,0.00,,---,0.00,VWS V14.01,2013-11-15 21:27:00,
2013-11-15 16:28:00,53.1,8.1,30.18,East,90,0.0,0.0,16,0.00,,---,0.00,VWS V14.01,2013-11-15 21:28:00,
2013-11-15 16:29:00,53.1,8.1,30.18,East,90,0.0,0.0,16,0.00,,---,0.00,VWS V14.01,2013-11-15 21:29:00,
2013-11-15 16:30:00,53.1,8.1,30.18,East,90,0.0,0.0,16,0.00,,---,0.00,VWS V14.01,2013-11-15 21:30:00,
2013-11-15 16:31:00,53.1,8.1,30.18,East,90,0.0,0.0,16,0.00,,---,0.00,VWS V14.01,2013-11-15 21:31:00,
2013-11-15 16:32:00,53.1,8.1,30.18,East,90,0.0,0.0,16,0.00,,---,0.00,VWS V14.01,2013-11-15 21:32:00,
2013-11-15 16:33:00,53.1,8.1,30.18,East,90,0.0,0.0,16,0.00,,---,0.00,VWS V14.01,2013-11-15 21:33:00,
2013-11-15 16:34:00,53.1,8.1,30.18,East,90,0.0,0.0,16,0.00,,---,0.00,VWS V14.01,2013-11-15 21:34:00,
2013-11-15 16:36:00,53.1,8.1,30.18,East,90,0.0,0.0,16,0.00,,---,0.00,VWS V14.01,2013-11-15 21:36:00,
2013-11-15 16:37:00,52.5,7.6,30.18,East,90,0.0,0.0,16,0.00,,---,0.00,VWS V14.01,2013-11-15 21:37:00,
2013-11-15 16:38:00,52.5,7.6,30.18,East,90,0.0,0.0,16,0.00,,---,0.00,VWS V14.01,2013-11-15 21:38:00,
2013-11-15 16:39:00,52.5,7.6,30.18,East,90,0.0,0.0,16,0.00,,---,0.00,VWS V14.01,2013-11-15 21:39:00,
2013-11-15 16:41:00,52.5,7.6,30.18,East,90,0.0,0.0,16,0.00,,---,0.00,VWS V14.01,2013-11-15 21:41:00,
2013-11-15 16:42:00,52.5,7.6,30.18,East,90,0.0,0.0,16,0.00,,---,0.00,VWS V14.01,2013-11-15 21:42:00,
2013-11-15 16:43:00,52.2,7.3,30.18,East,90,0.0,0.0,16,0.00,,---,0.00,VWS V14.01,2013-11-15 21:43:00,
2013-11-15 16:44:00,52.2,7.3,30.18,East,90,0.0,0.0,16,0.00,,---,0.00,VWS V14.01,2013-11-15 21:44:00,
2013-11-15 16:45:00,52.2,7.3,30.18,East,90,0.0,0.0,16,0.00,,---,0.00,VWS V14.01,2013-11-15 21:45:00,
2013-11-15 16:46:00,52.2,7.3,30.18,East,90,0.0,0.0,16,0.00,,---,0.00,VWS V14.01,2013-11-15 21:46:00,
2013-11-15 16:47:00,52.0,7.2,30.18,East,90,0.0,0.0,16,0.00,,---,0.00,VWS V14.01,2013-11-15 21:47:00,
2013-11-15 16:48:00,52.0,7.2,30.18,East,90,0.0,0.0,16,0.00,,---,0.00,VWS V14.01,2013-11-15 21:48:00,
2013-11-15 16:49:00,52.0,7.2,30.18,East,90,0.0,0.0,16,0.00,,---,0.00,VWS V14.01,2013-11-15 21:49:00,
2013-11-15 16:50:00,52.0,7.2,30.18,East,90,0.0,0.0,16,0.00,,---,0.00,VWS V14.01,2013-11-15 21:50:00,
2013-11-15 16:52:00,51.8,7.1,30.18,East,90,0.0,0.0,16,0.00,,---,0.00,VWS V14.01,2013-11-15 21:52:00,
2013-11-15 16:53:00,51.6,6.9,30.18,East,90,0.0,0.0,16,0.00,,---,0.00,VWS V14.01,2013-11-15 21:53:00,
2013-11-15 16:54:00,51.4,6.8,30.18,East,90,0.0,0.0,16,0.00,,---,0.00,VWS V14.01,2013-11-15 21:54:00,
2013-11-15 16:55:00,51.4,6.8,30.18,East,90,0.0,0.0,16,0.00,,---,0.00,VWS V14.01,2013-11-15 21:55:00,
2013-11-15 16:57:00,51.4,6.8,30.18,East,90,0.0,0.0,16,0.00,,---,0.00,VWS V14.01,2013-11-15 21:57:00,
2013-11-15 16:58:00,51.4,6.8,30.18,East,90,0.0,0.0,16,0.00,,---,0.00,VWS V14.01,2013-11-15 21:58:00,
2013-11-15 16:59:00,51.4,6.8,30.18,East,90,0.0,0.0,16,0.00,,---,0.00,VWS V14.01,2013-11-15 21:59:00,
2013-11-15 17:00:00,51.3,6.6,30.18,East,90,0.0,0.0,16,0.00,,---,0.00,VWS V14.01,2013-11-15 22:00:00,
2013-11-15 17:02:00,51.3,6.6,30.18,East,90,0.0,0.0,16,0.00,,---,0.00,VWS V14.01,2013-11-15 22:02:00,
2013-11-15 17:03:00,51.3,6.6,30.18,East,90,0.0,0.0,16,0.00,,---,0.00,VWS V14.01,2013-11-15 22:03:00,
2013-11-15 17:04:00,51.3,6.6,30.18,East,90,0.0,0.0,16,0.00,,---,0.00,VWS V14.01,2013-11-15 22:04:00,
2013-11-15 17:05:00,51.3,6.6,30.18,East,90,0.0,0.0,16,0.00,,---,0.00,VWS V14.01,2013-11-15 22:05:00,
2013-11-15 17:07:00,51.3,6.6,30.18,East,90,0.0,0.0,16,0.00,,---,0.00,VWS V14.01,2013-11-15 22:07:00,
2013-11-15 17:08:00,51.3,6.6,30.18,East,90,0.0,0.0,16,0.00,,---,0.00,VWS V14.01,2013-11-15 22:08:00,
2013-11-15 17:09:00,51.3,6.6,30.18,East,90,0.0,0.0,16,0.00,,---,0.00,VWS V14.01,2013-11-15 22:09:00,
2013-11-15 17:10:00,51.3,6.6,30.18,East,90,0.0,0.0,16,0.00,,---,0.00,VWS V14.01,2013-11-15 22:10:00,
2013-11-15 17:12:00,51.3,6.6,30.18,East,90,0.0,0.0,16,0.00,,---,0.00,VWS V14.01,2013-11-15 22:12:00,
2013-11-15 17:13:00,51.3,6.6,30.18,East,90,0.0,0.0,16,0.00,,---,0.00,VWS V14.01,2013-11-15 22:13:00,
2013-11-15 17:14:00,51.3,6.6,30.18,East,90,0.0,0.0,16,0.00,,---,0.00,VWS V14.01,2013-11-15 22:14:00,
2013-11-15 17:15:00,51.3,6.6,30.18,East,90,0.0,0.0,16,0.00,,---,0.00,VWS V14.01,2013-11-15 22:15:00,
2013-11-15 17:18:00,50.4,5.9,30.18,East,90,0.0,0.0,16,0.00,,---,0.00,VWS V14.01,2013-11-15 22:18:00,
2013-11-15 17:19:00,50.2,5.7,30.18,East,90,0.0,0.0,16,0.00,,---,0.00,VWS V14.01,2013-11-15 22:19:00,
2013-11-15 17:20:00,50.2,5.7,30.18,East,90,0.0,0.0,16,0.00,,---,0.00,VWS V14.01,2013-11-15 22:20:00,
2013-11-15 17:21:00,50.0,5.6,30.18,East,90,0.0,0.0,16,0.00,,---,0.00,VWS V14.01,2013-11-15 22:21:00,
2013-11-15 17:23:00,50.0,5.6,30.18,East,90,0.0,0.0,16,0.00,,---,0.00,VWS V14.01,2013-11-15 22:23:00,
2013-11-15 17:24:00,49.8,5.4,30.18,East,90,0.0,0.0,16,0.00,,---,0.00,VWS V14.01,2013-11-15 22:24:00,
2013-11-15 17:25:00,49.8,5.4,30.18,East,90,0.0,0.0,16,0.00,,---,0.00,VWS V14.01,2013-11-15 22:25:00,
2013-11-15 17:26:00,49.6,5.3,30.18,East,90,0.0,0.0,16,0.00,,---,0.00,VWS V14.01,2013-11-15 22:26:00,
2013-11-15 17:28:00,49.5,5.2,30.18,East,90,0.0,0.0,16,0.00,,---,0.00,VWS V14.01,2013-11-15 22:28:00,
2013-11-15 17:29:00,49.3,5.0,30.18,East,90,0.0,0.0,16,0.00,,---,0.00,VWS V14.01,2013-11-15 22:29:00,
2013-11-15 17:30:00,49.3,5.0,30.18,East,90,0.0,0.0,16,0.00,,---,0.00,VWS V14.01,2013-11-15 22:30:00,
2013-11-15 17:32:00,49.3,5.0,30.18,East,90,0.0,0.0,16,0.00,,---,0.00,VWS V14.01,2013-11-15 22:32:00,
2013-11-15 17:33:00,49.3,5.0,30.18,East,90,0.0,0.0,16,0.00,,---,0.00,VWS V14.01,2013-11-15 22:33:00,
2013-11-15 17:34:00,49.3,5.0,30.18,East,90,0.0,0.0,16,0.00,,---,0.00,VWS V14.01,2013-11-15 22:34:00,
2013-11-15 17:35:00,49.5,5.2,30.18,East,90,0.0,0.0,16,0.00,,---,0.00,VWS V14.01,2013-11-15 22:35:00,
2013-11-15 17:36:00,49.5,5.2,30.18,East,90,0.0,0.0,16,0.00,,---,0.00,VWS V14.01,2013-11-15 22:36:00,
2013-11-15 17:37:00,49.5,5.2,30.18,East,90,0.0,0.0,16,0.00,,---,0.00,VWS V14.01,2013-11-15 22:37:00,
2013-11-15 17:38:00,49.5,5.2,30.18,East,90,0.0,0.0,16,0.00,,---,0.00,VWS V14.01,2013-11-15 22:38:00,
2013-11-15 17:39:00,49.5,5.2,30.18,East,90,0.0,0.0,16,0.00,,---,0.00,VWS V14.01,2013-11-15 22:39:00,
2013-11-15 17:40:00,49.1,4.9,30.18,East,90,0.0,0.0,16,0.00,,---,0.00,VWS V14.01,2013-11-15 22:40:00,
2013-11-15 17:41:00,48.7,4.6,30.18,East,90,0.0,0.0,16,0.00,,---,0.00,VWS V14.01,2013-11-15 22:41:00,
2013-11-15 17:42:00,48.7,4.6,30.18,East,90,0.0,0.0,16,0.00,,---,0.00,VWS V14.01,2013-11-15 22:42:00,
2013-11-15 17:43:00,48.7,4.6,30.18,East,90,0.0,0.0,16,0.00,,---,0.00,VWS V14.01,2013-11-15 22:43:00,
2013-11-15 17:44:00,48.7,4.6,30.18,East,90,0.0,0.0,16,0.00,,---,0.00,VWS V14.01,2013-11-15 22:44:00,
2013-11-15 17:45:00,48.6,4.4,30.18,East,90,0.0,0.0,16,0.00,,---,0.00,VWS V14.01,2013-11-15 22:45:00,
2013-11-15 17:46:00,48.6,4.4,30.18,East,90,0.0,0.0,16,0.00,,---,0.00,VWS V14.01,2013-11-15 22:46:00,
2013-11-15 17:47:00,48.6,4.4,30.18,East,90,0.0,0.0,16,0.00,,---,0.00,VWS V14.01,2013-11-15 22:47:00,
2013-11-15 17:48:00,48.6,4.4,30.18,East,90,0.0,0.0,16,0.00,,---,0.00,VWS V14.01,2013-11-15 22:48:00,
2013-11-15 17:49:00,48.6,4.4,30.18,East,90,0.0,0.0,16,0.00,,---,0.00,VWS V14.01,2013-11-15 22:49:00,
2013-11-15 17:50:00,48.2,4.1,30.18,East,90,0.0,0.0,16,0.00,,---,0.00,VWS V14.01,2013-11-15 22:50:00,
2013-11-15 17:51:00,48.2,4.1,30.18,East,90,0.0,0.0,16,0.00,,---,0.00,VWS V14.01,2013-11-15 22:51:00,
2013-11-15 17:52:00,48.2,4.1,30.18,East,90,0.0,0.0,16,0.00,,---,0.00,VWS V14.01,2013-11-15 22:52:00,
2013-11-15 17:53:00,48.2,4.1,30.18,East,90,0.0,0.0,16,0.00,,---,0.00,VWS V14.01,2013-11-15 22:53:00,
2013-11-15 17:54:00,48.0,5.3,30.18,East,90,0.0,0.0,17,0.00,,---,0.00,VWS V14.01,2013-11-15 22:54:00,
2013-11-15 17:55:00,47.8,5.2,30.18,East,90,0.0,0.0,17,0.00,,---,0.00,VWS V14.01,2013-11-15 22:55:00,
2013-11-15 17:56:00,47.8,5.2,30.18,East,90,0.0,0.0,17,0.00,,---,0.00,VWS V14.01,2013-11-15 22:56:00,
2013-11-15 17:57:00,47.7,5.0,30.18,East,90,0.0,0.0,17,0.00,,---,0.00,VWS V14.01,2013-11-15 22:57:00,
2013-11-15 17:58:00,47.7,5.0,30.18,East,90,0.0,0.0,17,0.00,,---,0.00,VWS V14.01,2013-11-15 22:58:00,
2013-11-15 17:59:00,47.5,4.8,30.18,East,90,0.0,0.0,17,0.00,,---,0.00,VWS V14.01,2013-11-15 22:59:00,
2013-11-15 18:00:00,47.5,4.8,30.18,East,90,0.0,0.0,17,0.00,,---,0.00,VWS V14.01,2013-11-15 23:00:00,
2013-11-15 18:01:00,47.5,4.8,30.18,East,90,0.0,0.0,17,0.00,,---,0.00,VWS V14.01,2013-11-15 23:01:00,
2013-11-15 18:02:00,47.5,4.8,30.18,East,90,0.0,0.0,17,0.00,,---,0.00,VWS V14.01,2013-11-15 23:02:00,
2013-11-15 18:03:00,47.5,4.8,30.18,East,90,0.0,0.0,17,0.00,,---,0.00,VWS V14.01,2013-11-15 23:03:00,
2013-11-15 18:04:00,47.3,4.7,30.18,East,90,0.0,0.0,17,0.00,,---,0.00,VWS V14.01,2013-11-15 23:04:00,
2013-11-15 18:05:00,47.3,4.7,30.18,East,90,0.0,0.0,17,0.00,,---,0.00,VWS V14.01,2013-11-15 23:05:00,
2013-11-15 18:06:00,47.3,4.7,30.18,East,90,0.0,0.0,17,0.00,,---,0.00,VWS V14.01,2013-11-15 23:06:00,
2013-11-15 18:08:00,47.1,4.6,30.18,East,90,0.0,0.0,17,0.00,,---,0.00,VWS V14.01,2013-11-15 23:08:00,
2013-11-15 18:09:00,47.1,4.6,30.18,East,90,0.0,0.0,17,0.00,,---,0.00,VWS V14.01,2013-11-15 23:09:00,
2013-11-15 18:10:00,47.1,4.6,30.18,East,90,0.0,0.0,17,0.00,,---,0.00,VWS V14.01,2013-11-15 23:10:00,
2013-11-15 18:12:00,47.1,4.6,30.18,East,90,0.0,0.0,17,0.00,,---,0.00,VWS V14.01,2013-11-15 23:12:00,
2013-11-15 18:13:00,46.9,4.4,30.18,East,90,0.0,0.0,17,0.00,,---,0.00,VWS V14.01,2013-11-15 23:13:00,
2013-11-15 18:14:00,46.9,4.4,30.18,East,90,0.0,0.0,17,0.00,,---,0.00,VWS V14.01,2013-11-15 23:14:00,
2013-11-15 18:15:00,46.8,4.3,30.18,East,90,0.0,0.0,17,0.00,,---,0.00,VWS V14.01,2013-11-15 23:15:00,
2013-11-15 18:17:00,46.8,4.3,30.18,East,90,0.0,0.0,17,0.00,,---,0.00,VWS V14.01,2013-11-15 23:17:00,
2013-11-15 18:19:00,46.6,4.1,30.18,East,90,0.0,0.0,17,0.00,,---,0.00,VWS V14.01,2013-11-15 23:19:00,
2013-11-15 18:20:00,46.6,4.1,30.18,East,90,0.0,0.0,17,0.00,,---,0.00,VWS V14.01,2013-11-15 23:20:00,
2013-11-15 18:22:00,46.6,4.1,30.18,East,90,0.0,0.0,17,0.00,,---,0.00,VWS V14.01,2013-11-15 23:22:00,
2013-11-15 18:24:00,46.4,4.0,30.18,East,90,0.0,0.0,17,0.00,,---,0.00,VWS V14.01,2013-11-15 23:24:00,
2013-11-15 18:26:00,46.2,3.8,30.18,East,90,0.0,0.0,17,0.00,,---,0.00,VWS V14.01,2013-11-15 23:26:00,
2013-11-15 18:27:00,46.0,3.7,30.18,East,90,0.0,0.0,17,0.00,,---,0.00,VWS V14.01,2013-11-15 23:27:00,
2013-11-15 18:29:00,46.0,3.7,30.18,East,90,0.0,0.0,17,0.00,,---,0.00,VWS V14.01,2013-11-15 23:29:00,
2013-11-15 18:30:00,46.0,3.7,30.18,East,90,0.0,0.0,17,0.00,,---,0.00,VWS V14.01,2013-11-15 23:30:00,
2013-11-15 18:31:00,46.0,3.7,30.18,East,90,0.0,0.0,17,0.00,,---,0.00,VWS V14.01,2013-11-15 23:31:00,
2013-11-15 18:33:00,46.0,3.7,30.18,East,90,0.0,0.0,17,0.00,,---,0.00,VWS V14.01,2013-11-15 23:33:00,
2013-11-15 18:34:00,45.9,3.5,30.18,East,90,0.0,0.0,17,0.00,,---,0.00,VWS V14.01,2013-11-15 23:34:00,
2013-11-15 18:35:00,45.9,3.5,30.18,East,90,0.0,0.0,17,0.00,,---,0.00,VWS V14.01,2013-11-15 23:35:00,
2013-11-15 18:36:00,45.9,3.5,30.18,East,90,0.0,0.0,17,0.00,,---,0.00,VWS V14.01,2013-11-15 23:36:00,
2013-11-15 18:38:00,45.9,3.5,30.18,East,90,0.0,0.0,17,0.00,,---,0.00,VWS V14.01,2013-11-15 23:38:00,
2013-11-15 18:39:00,45.5,3.2,30.18,East,90,0.0,0.0,17,0.00,,---,0.00,VWS V14.01,2013-11-15 23:39:00,
2013-11-15 18:40:00,45.5,3.2,30.18,East,90,0.0,0.0,17,0.00,,---,0.00,VWS V14.01,2013-11-15 23:40:00,
2013-11-15 18:41:00,45.5,3.2,30.18,East,90,0.0,0.0,17,0.00,,---,0.00,VWS V14.01,2013-11-15 23:41:00,
2013-11-15 18:43:00,45.5,3.2,30.18,East,90,0.0,0.0,17,0.00,,---,0.00,VWS V14.01,2013-11-15 23:43:00,
2013-11-15 18:44:00,45.3,3.1,30.18,East,90,0.0,0.0,17,0.00,,---,0.00,VWS V14.01,2013-11-15 23:44:00,
2013-11-15 18:45:00,45.3,3.1,30.18,East,90,0.0,0.0,17,0.00,,---,0.00,VWS V14.01,2013-11-15 23:45:00,
2013-11-15 18:46:00,45.1,2.9,30.18,East,90,0.0,0.0,17,0.00,,---,0.00,VWS V14.01,2013-11-15 23:46:00,
2013-11-15 18:48:00,45.1,2.9,30.18,East,90,0.0,0.0,17,0.00,,---,0.00,VWS V14.01,2013-11-15 23:48:00,
2013-11-15 18:49:00,45.1,2.9,30.18,East,90,0.0,0.0,17,0.00,,---,0.00,VWS V14.01,2013-11-15 23:49:00,
2013-11-15 18:50:00,45.1,2.9,30.18,East,90,0.0,0.0,17,0.00,,---,0.00,VWS V14.01,2013-11-15 23:50:00,
2013-11-15 18:51:00,45.1,2.9,30.18,East,90,0.0,0.0,17,0.00,,---,0.00,VWS V14.01,2013-11-15 23:51:00,
2013-11-15 18:53:00,45.0,2.8,30.18,East,90,0.0,0.0,17,0.00,,---,0.00,VWS V14.01,2013-11-15 23:53:00,
2013-11-15 18:54:00,44.8,2.6,30.18,East,90,0.0,0.0,17,0.00,,---,0.00,VWS V14.01,2013-11-15 23:54:00,
2013-11-15 18:55:00,44.8,2.6,30.18,East,90,0.0,0.0,17,0.00,,---,0.00,VWS V14.01,2013-11-15 23:55:00,
2013-11-15 18:56:00,44.6,2.5,30.18,East,90,0.0,0.0,17,0.00,,---,0.00,VWS V14.01,2013-11-15 23:56:00,
2013-11-15 18:58:00,44.4,3.6,30.18,East,90,0.0,0.0,18,0.00,,---,0.00,VWS V14.01,2013-11-15 23:58:00,
2013-11-15 19:00:00,44.4,3.6,30.18,East,90,0.0,0.0,18,0.00,,---,0.00,VWS V14.01,2013-11-16 00:00:00,
2013-11-15 19:01:00,44.4,3.6,30.18,East,90,0.0,0.0,18,0.00,,---,0.00,VWS V14.01,2013-11-16 00:01:00,
2013-11-15 19:03:00,44.4,3.6,30.18,East,90,0.0,0.0,18,0.00,,---,0.00,VWS V14.01,2013-11-16 00:03:00,
2013-11-15 19:05:00,44.2,3.4,30.18,East,90,0.0,0.0,18,0.00,,---,0.00,VWS V14.01,2013-11-16 00:05:00,
2013-11-15 19:06:00,44.2,3.4,30.18,East,90,0.0,0.0,18,0.00,,---,0.00,VWS V14.01,2013-11-16 00:06:00,
2013-11-15 19:07:00,44.1,3.3,30.18,East,90,0.0,0.0,18,0.00,,---,0.00,VWS V14.01,2013-11-16 00:07:00,
2013-11-15 19:08:00,43.9,3.1,30.18,East,90,0.0,0.0,18,0.00,,---,0.00,VWS V14.01,2013-11-16 00:08:00,
2013-11-15 19:10:00,43.9,3.1,30.18,East,90,0.0,0.0,18,0.00,,---,0.00,VWS V14.01,2013-11-16 00:10:00,
2013-11-15 19:11:00,43.9,3.1,30.18,East,90,0.0,0.0,18,0.00,,---,0.00,VWS V14.01,2013-11-16 00:11:00,
2013-11-15 19:12:00,43.7,3.0,30.18,East,90,0.0,0.0,18,0.00,,---,0.00,VWS V14.01,2013-11-16 00:12:00,
2013-11-15 19:14:00,43.7,3.0,30.18,East,90,0.0,0.0,18,0.00,,---,0.00,VWS V14.01,2013-11-16 00:14:00,
2013-11-15 19:15:00,43.7,3.0,30.18,East,90,0.0,0.0,18,0.00,,---,0.00,VWS V14.01,2013-11-16 00:15:00,
2013-11-15 19:16:00,43.7,3.0,30.18,East,90,0.0,0.0,18,0.00,,---,0.00,VWS V14.01,2013-11-16 00:16:00,
2013-11-15 19:17:00,43.5,2.8,30.18,East,90,0.0,0.0,18,0.00,,---,0.00,VWS V14.01,2013-11-16 00:17:00,
2013-11-15 19:19:00,43.5,2.8,30.18,East,90,0.0,0.0,18,0.00,,---,0.00,VWS V14.01,2013-11-16 00:19:00,
2013-11-15 19:21:00,43.3,2.7,30.18,East,90,0.0,0.0,18,0.00,,---,0.00,VWS V14.01,2013-11-16 00:21:00,
2013-11-15 19:22:00,43.3,2.7,30.18,East,90,0.0,0.0,18,0.00,,---,0.00,VWS V14.01,2013-11-16 00:22:00,
2013-11-15 19:24:00,43.3,2.7,30.18,East,90,0.0,0.0,18,0.00,,---,0.00,VWS V14.01,2013-11-16 00:24:00,
2013-11-15 19:26:00,43.2,2.5,30.18,East,90,0.0,0.0,18,0.00,,---,0.00,VWS V14.01,2013-11-16 00:26:00,
2013-11-15 19:27:00,43.2,2.5,30.18,East,90,0.0,0.0,18,0.00,,---,0.00,VWS V14.01,2013-11-16 00:27:00,
2013-11-15 19:29:00,43.0,2.4,30.18,East,90,0.0,0.0,18,0.00,,---,0.00,VWS V14.01,2013-11-16 00:29:00,
2013-11-15 19:31:00,43.0,2.4,30.18,East,90,0.0,0.0,18,0.00,,---,0.00,VWS V14.01,2013-11-16 00:31:00,
2013-11-15 19:32:00,43.0,2.4,30.18,East,90,0.0,0.0,18,0.00,,---,0.00,VWS V14.01,2013-11-16 00:32:00,
2013-11-15 19:34:00,42.8,2.2,30.18,East,90,0.0,0.0,18,0.00,,---,0.00,VWS V14.01,2013-11-16 00:34:00,
2013-11-15 19:36:00,42.8,2.2,30.18,East,90,0.0,0.0,18,0.00,,---,0.00,VWS V14.01,2013-11-16 00:36:00,
2013-11-15 19:37:00,42.6,2.1,30.18,East,90,0.0,0.0,18,0.00,,---,0.00,VWS V14.01,2013-11-16 00:37:00,
2013-11-15 19:38:00,42.6,2.1,30.18,East,90,0.0,0.0,18,0.00,,---,0.00,VWS V14.01,2013-11-16 00:38:00,
2013-11-15 19:39:00,42.4,1.9,30.18,East,90,0.0,0.0,18,0.00,,---,0.00,VWS V14.01,2013-11-16 00:39:00,
2013-11-15 19:41:00,42.4,1.9,30.21,East,90,0.0,0.0,18,0.00,,---,0.00,VWS V14.01,2013-11-16 00:41:00,
2013-11-15 19:42:00,42.3,1.8,30.21,East,90,0.0,0.0,18,0.00,,---,0.00,VWS V14.01,2013-11-16 00:42:00,
2013-11-15 19:44:00,42.3,1.8,30.21,East,90,0.0,0.0,18,0.00,,---,0.00,VWS V14.01,2013-11-16 00:44:00,
2013-11-15 19:46:00,42.3,5.1,30.21,East,90,0.0,0.0,21,0.00,,---,0.00,VWS V14.01,2013-11-16 00:46:00,
2013-11-15 19:47:00,42.3,5.1,30.21,East,90,0.0,0.0,21,0.00,,---,0.00,VWS V14.01,2013-11-16 00:47:00,
2013-11-15 19:48:00,42.3,5.1,30.21,East,90,0.0,0.0,21,0.00,,---,0.00,VWS V14.01,2013-11-16 00:48:00,
2013-11-15 19:49:00,42.3,5.1,30.21,East,90,0.0,0.0,21,0.00,,---,0.00,VWS V14.01,2013-11-16 00:49:00,
2013-11-15 19:51:00,42.1,5.0,30.21,East,90,0.0,0.0,21,0.00,,---,0.00,VWS V14.01,2013-11-16 00:51:00,
2013-11-15 19:52:00,42.1,5.0,30.21,East,90,0.0,0.0,21,0.00,,---,0.00,VWS V14.01,2013-11-16 00:52:00,
2013-11-15 19:53:00,42.1,5.0,30.21,East,90,0.0,0.0,21,0.00,,---,0.00,VWS V14.01,2013-11-16 00:53:00,
2013-11-15 19:54:00,42.1,5.0,30.21,East,90,0.0,0.0,21,0.00,,---,0.00,VWS V14.01,2013-11-16 00:54:00,
2013-11-15 19:56:00,41.9,4.8,30.21,East,90,0.0,0.0,21,0.00,,---,0.00,VWS V14.01,2013-11-16 00:56:00,
2013-11-15 19:57:00,41.7,4.7,30.21,East,90,0.0,0.0,21,0.00,,---,0.00,VWS V14.01,2013-11-16 00:57:00,
2013-11-15 19:58:00,41.7,4.7,30.21,East,90,0.0,0.0,21,0.00,,---,0.00,VWS V14.01,2013-11-16 00:58:00,
2013-11-15 19:59:00,41.7,4.7,30.21,East,90,0.0,0.0,21,0.00,,---,0.00,VWS V14.01,2013-11-16 00:59:00,
2013-11-15 20:01:00,41.5,4.5,30.21,East,90,0.0,0.0,21,0.00,,---,0.00,VWS V14.01,2013-11-16 01:01:00,
2013-11-15 20:02:00,41.5,4.5,30.21,East,90,0.0,0.0,21,0.00,,---,0.00,VWS V14.01,2013-11-16 01:02:00,
2013-11-15 20:03:00,41.5,4.5,30.21,East,90,0.0,0.0,21,0.00,,---,0.00,VWS V14.01,2013-11-16 01:03:00,
2013-11-15 20:04:00,41.5,4.5,30.21,East,90,0.0,0.0,21,0.00,,---,0.00,VWS V14.01,2013-11-16 01:04:00,
2013-11-15 20:05:00,41.5,4.5,30.21,East,90,0.0,0.0,21,0.00,,---,0.00,VWS V14.01,2013-11-16 01:05:00,
2013-11-15 20:06:00,41.5,4.5,30.21,East,90,0.0,0.0,21,0.00,,---,0.00,VWS V14.01,2013-11-16 01:06:00,
2013-11-15 20:08:00,41.5,4.5,30.21,East,90,0.0,0.0,21,0.00,,---,0.00,VWS V14.01,2013-11-16 01:08:00,
2013-11-15 20:10:00,41.5,4.5,30.21,East,90,0.0,0.0,21,0.00,,---,0.00,VWS V14.01,2013-11-16 01:10:00,
2013-11-15 20:11:00,41.5,4.5,30.21,East,90,0.0,0.0,21,0.00,,---,0.00,VWS V14.01,2013-11-16 01:11:00,
2013-11-15 20:13:00,41.5,4.5,30.21,East,90,0.0,0.0,21,0.00,,---,0.00,VWS V14.01,2013-11-16 01:13:00,
2013-11-15 20:15:00,41.4,4.4,30.21,East,90,0.0,0.0,21,0.00,,---,0.00,VWS V14.01,2013-11-16 01:15:00,
2013-11-15 20:17:00,41.4,4.4,30.21,East,90,0.0,0.0,21,0.00,,---,0.00,VWS V14.01,2013-11-16 01:17:00,
2013-11-15 20:18:00,41.2,4.2,30.21,East,90,0.0,0.0,21,0.00,,---,0.00,VWS V14.01,2013-11-16 01:18:00,
2013-11-15 20:20:00,41.2,4.2,30.21,East,90,0.0,0.0,21,0.00,,---,0.00,VWS V14.01,2013-11-16 01:20:00,
2013-11-15 20:22:00,41.0,4.1,30.21,East,90,0.0,0.0,21,0.00,,---,0.00,VWS V14.01,2013-11-16 01:22:00,
2013-11-15 20:23:00,41.2,4.2,30.21,East,90,0.0,0.0,21,0.00,,---,0.00,VWS V14.01,2013-11-16 01:23:00,
2013-11-15 20:25:00,41.0,4.1,30.18,East,90,0.0,0.0,21,0.00,,---,0.00,VWS V14.01,2013-11-16 01:25:00,
2013-11-15 20:27:00,41.0,4.1,30.18,East,90,0.0,0.0,21,0.00,,---,0.00,VWS V14.01,2013-11-16 01:27:00,
2013-11-15 20:28:00,41.0,4.1,30.18,East,90,0.0,0.0,21,0.00,,---,0.00,VWS V14.01,2013-11-16 01:28:00,
2013-11-15 20:30:00,40.8,3.9,30.18,East,90,0.0,0.0,21,0.00,,---,0.00,VWS V14.01,2013-11-16 01:30:00,
2013-11-15 20:32:00,40.8,3.9,30.18,East,90,0.0,0.0,21,0.00,,---,0.00,VWS V14.01,2013-11-16 01:32:00,
2013-11-15 20:33:00,40.8,3.9,30.18,East,90,0.0,0.0,21,0.00,,---,0.00,VWS V14.01,2013-11-16 01:33:00,
2013-11-15 20:34:00,40.8,3.9,30.18,East,90,0.0,0.0,21,0.00,,---,0.00,VWS V14.01,2013-11-16 01:34:00,
2013-11-15 20:35:00,40.8,3.9,30.18,East,90,0.0,0.0,21,0.00,,---,0.00,VWS V14.01,2013-11-16 01:35:00,
2013-11-15 20:37:00,40.8,3.9,30.18,East,90,0.0,0.0,21,0.00,,---,0.00,VWS V14.01,2013-11-16 01:37:00,
2013-11-15 20:38:00,40.8,3.9,30.18,East,90,0.0,0.0,21,0.00,,---,0.00,VWS V14.01,2013-11-16 01:38:00,
2013-11-15 20:39:00,40.8,3.9,30.18,East,90,0.0,0.0,21,0.00,,---,0.00,VWS V14.01,2013-11-16 01:39:00,
2013-11-15 20:40:00,40.8,3.9,30.18,East,90,0.0,0.0,21,0.00,,---,0.00,VWS V14.01,2013-11-16 01:40:00,
2013-11-15 20:41:00,40.8,3.9,30.18,East,90,0.0,0.0,21,0.00,,---,0.00,VWS V14.01,2013-11-16 01:41:00,
2013-11-15 20:42:00,40.8,3.9,30.18,East,90,0.0,0.0,21,0.00,,---,0.00,VWS V14.01,2013-11-16 01:42:00,
2013-11-15 20:44:00,40.8,3.9,30.18,East,90,0.0,0.0,21,0.00,,---,0.00,VWS V14.01,2013-11-16 01:44:00,
2013-11-15 20:45:00,40.8,3.9,30.18,East,90,0.0,0.0,21,0.00,,---,0.00,VWS V14.01,2013-11-16 01:45:00,
2013-11-15 20:46:00,40.8,3.9,30.18,East,90,0.0,0.0,21,0.00,,---,0.00,VWS V14.01,2013-11-16 01:46:00,
2013-11-15 20:47:00,40.8,3.9,30.18,East,90,0.0,0.0,21,0.00,,---,0.00,VWS V14.01,2013-11-16 01:47:00,
2013-11-15 20:49:00,40.8,3.9,30.18,East,90,0.0,0.0,21,0.00,,---,0.00,VWS V14.01,2013-11-16 01:49:00,
2013-11-15 20:51:00,40.8,3.9,30.18,East,90,0.0,0.0,21,0.00,,---,0.00,VWS V14.01,2013-11-16 01:51:00,
2013-11-15 20:52:00,40.8,3.9,30.18,East,90,0.0,0.0,21,0.00,,---,0.00,VWS V14.01,2013-11-16 01:52:00,
2013-11-15 20:54:00,41.0,4.1,30.18,East,90,0.0,0.0,21,0.00,,---,0.00,VWS V14.01,2013-11-16 01:54:00,
2013-11-15 20:56:00,40.8,3.9,30.18,East,90,0.0,0.0,21,0.00,,---,0.00,VWS V14.01,2013-11-16 01:56:00,
2013-11-15 20:57:00,40.8,3.9,30.18,East,90,0.0,0.0,21,0.00,,---,0.00,VWS V14.01,2013-11-16 01:57:00,
2013-11-15 20:59:00,40.6,3.8,30.18,East,90,0.0,0.0,21,0.00,,---,0.00,VWS V14.01,2013-11-16 01:59:00,
2013-11-15 21:02:00,40.6,3.8,30.18,East,90,0.0,0.0,21,0.00,,---,0.00,VWS V14.01,2013-11-16 02:02:00,
2013-11-15 21:04:00,40.6,5.8,30.18,East,90,0.0,0.0,23,0.00,,---,0.00,VWS V14.01,2013-11-16 02:04:00,
2013-11-15 21:05:00,40.6,5.8,30.18,East,90,0.0,0.0,23,0.00,,---,0.00,VWS V14.01,2013-11-16 02:05:00,
2013-11-15 21:07:00,40.5,5.6,30.18,East,90,0.0,0.0,23,0.00,,---,0.00,VWS V14.01,2013-11-16 02:07:00,
2013-11-15 21:08:00,40.5,5.6,30.18,East,90,0.0,0.0,23,0.00,,---,0.00,VWS V14.01,2013-11-16 02:08:00,
2013-11-15 21:09:00,40.5,5.6,30.18,East,90,0.0,0.0,23,0.00,,---,0.00,VWS V14.01,2013-11-16 02:09:00,
2013-11-15 21:10:00,40.5,5.6,30.18,East,90,0.0,0.0,23,0.00,,---,0.00,VWS V14.01,2013-11-16 02:10:00,
2013-11-15 21:12:00,40.3,5.4,30.18,East,90,0.0,0.0,23,0.00,,---,0.00,VWS V14.01,2013-11-16 02:12:00,
2013-11-15 21:13:00,40.3,5.4,30.18,East,90,0.0,0.0,23,0.00,,---,0.00,VWS V14.01,2013-11-16 02:13:00,
2013-11-15 21:14:00,40.3,5.4,30.18,East,90,0.0,0.0,23,0.00,,---,0.00,VWS V14.01,2013-11-16 02:14:00,
2013-11-15 21:15:00,40.3,5.4,30.18,East,90,0.0,0.0,23,0.00,,---,0.00,VWS V14.01,2013-11-16 02:15:00,
2013-11-15 21:17:00,40.3,5.4,30.18,East,90,0.0,0.0,23,0.00,,---,0.00,VWS V14.01,2013-11-16 02:17:00,
2013-11-15 21:18:00,40.3,5.4,30.18,East,90,0.0,0.0,23,0.00,,---,0.00,VWS V14.01,2013-11-16 02:18:00,
2013-11-15 21:19:00,40.1,5.3,30.18,East,90,0.0,0.0,23,0.00,,---,0.00,VWS V14.01,2013-11-16 02:19:00,
2013-11-15 21:20:00,40.1,5.3,30.18,East,90,0.0,0.0,23,0.00,,---,0.00,VWS V14.01,2013-11-16 02:20:00,
2013-11-15 21:23:00,39.9,5.1,30.18,East,90,0.0,0.0,23,0.00,,---,0.00,VWS V14.01,2013-11-16 02:23:00,
2013-11-15 21:24:00,39.9,5.1,30.18,East,90,0.0,0.0,23,0.00,,---,0.00,VWS V14.01,2013-11-16 02:24:00,
2013-11-15 21:25:00,39.9,5.1,30.18,East,90,0.0,0.0,23,0.00,,---,0.00,VWS V14.01,2013-11-16 02:25:00,
2013-11-15 21:26:00,39.9,5.1,30.21,East,90,0.0,0.0,23,0.00,,---,0.00,VWS V14.01,2013-11-16 02:26:00,
2013-11-15 21:27:00,39.7,5.0,30.21,East,90,0.0,0.0,23,0.00,,---,0.00,VWS V14.01,2013-11-16 02:27:00,
2013-11-15 21:28:00,39.7,5.0,30.21,East,90,0.0,0.0,23,0.00,,---,0.00,VWS V14.01,2013-11-16 02:28:00,
2013-11-15 21:29:00,39.7,5.0,30.21,East,90,0.0,0.0,23,0.00,,---,0.00,VWS V14.01,2013-11-16 02:29:00,
2013-11-15 21:31:00,39.7,5.0,30.21,East,90,0.0,0.0,23,0.00,,---,0.00,VWS V14.01,2013-11-16 02:31:00,
2013-11-15 21:33:00,39.7,5.0,30.21,East,90,0.0,0.0,23,0.00,,---,0.00,VWS V14.01,2013-11-16 02:33:00,
2013-11-15 21:35:00,39.4,4.7,30.21,East,90,0.0,0.0,23,0.00,,---,0.00,VWS V14.01,2013-11-16 02:35:00,
2013-11-15 21:36:00,39.4,4.7,30.21,East,90,0.0,0.0,23,0.00,,---,0.00,VWS V14.01,2013-11-16 02:36:00,
2013-11-15 21:38:00,39.4,4.7,30.21,East,90,0.0,0.0,23,0.00,,---,0.00,VWS V14.01,2013-11-16 02:38:00,
2013-11-15 21:40:00,39.4,4.7,30.21,East,90,0.0,0.0,23,0.00,,---,0.00,VWS V14.01,2013-11-16 02:40:00,
2013-11-15 21:41:00,39.4,4.7,30.21,East,90,0.0,0.0,23,0.00,,---,0.00,VWS V14.01,2013-11-16 02:41:00,
2013-11-15 21:43:00,39.4,4.7,30.21,East,90,0.0,0.0,23,0.00,,---,0.00,VWS V14.01,2013-11-16 02:43:00,
2013-11-15 21:44:00,39.6,4.8,30.21,West,270,0.0,0.0,23,0.00,,---,0.00,VWS V14.01,2013-11-16 02:44:00,
2013-11-15 21:45:00,39.6,4.8,30.21,West,270,0.0,0.0,23,0.00,,---,0.00,VWS V14.01,2013-11-16 02:45:00,
2013-11-15 21:46:00,39.6,4.8,30.21,West,270,0.0,0.0,23,0.00,,---,0.00,VWS V14.01,2013-11-16 02:46:00,
2013-11-15 21:48:00,39.6,4.8,30.21,WSW,248,0.0,0.0,23,0.00,,---,0.00,VWS V14.01,2013-11-16 02:48:00,
2013-11-15 21:49:00,39.6,4.8,30.21,SSW,202,0.0,0.0,23,0.00,,---,0.00,VWS V14.01,2013-11-16 02:49:00,
2013-11-15 21:50:00,39.6,4.8,30.21,SSW,202,0.0,0.0,23,0.00,,---,0.00,VWS V14.01,2013-11-16 02:50:00,
2013-11-15 21:51:00,39.6,4.8,30.21,SSW,202,0.0,0.0,23,0.00,,---,0.00,VWS V14.01,2013-11-16 02:51:00,
2013-11-15 21:53:00,39.6,4.8,30.21,NNE,22,0.0,0.0,23,0.00,,---,0.00,VWS V14.01,2013-11-16 02:53:00,
2013-11-15 21:54:00,39.6,4.8,30.21,NNE,22,0.0,0.0,23,0.00,,---,0.00,VWS V14.01,2013-11-16 02:54:00,
2013-11-15 21:55:00,39.7,5.0,30.21,NNE,22,0.0,0.0,23,0.00,,---,0.00,VWS V14.01,2013-11-16 02:55:00,
2013-11-15 21:56:00,39.7,5.0,30.21,NNE,22,0.0,0.0,23,0.00,,---,0.00,VWS V14.01,2013-11-16 02:56:00,
2013-11-15 21:57:00,39.7,5.0,30.21,NNE,22,0.0,0.0,23,0.00,,---,0.00,VWS V14.01,2013-11-16 02:57:00,
2013-11-15 21:58:00,39.7,5.0,30.21,NNE,22,0.0,0.0,23,0.00,,---,0.00,VWS V14.01,2013-11-16 02:58:00,
2013-11-15 21:59:00,39.7,5.0,30.21,WSW,248,0.0,0.0,23,0.00,,---,0.00,VWS V14.01,2013-11-16 02:59:00,
2013-11-15 22:00:00,39.7,5.0,30.21,WSW,248,0.0,0.0,23,0.00,,---,0.00,VWS V14.01,2013-11-16 03:00:00,
2013-11-15 22:02:00,39.7,5.0,30.21,WSW,248,0.0,0.0,23,0.00,,---,0.00,VWS V14.01,2013-11-16 03:02:00,
2013-11-15 22:04:00,39.7,5.0,30.21,WSW,248,0.0,0.0,23,0.00,,---,0.00,VWS V14.01,2013-11-16 03:04:00,
2013-11-15 22:05:00,39.9,5.1,30.21,NNE,22,0.0,0.0,23,0.00,,---,0.00,VWS V14.01,2013-11-16 03:05:00,
2013-11-15 22:07:00,39.7,5.0,30.21,NNE,22,0.0,0.0,23,0.00,,---,0.00,VWS V14.01,2013-11-16 03:07:00,
2013-11-15 22:09:00,39.7,5.0,30.21,NNE,22,0.0,0.0,23,0.00,,---,0.00,VWS V14.01,2013-11-16 03:09:00,
2013-11-15 22:10:00,39.7,5.0,30.21,NNE,22,0.0,0.0,23,0.00,,---,0.00,VWS V14.01,2013-11-16 03:10:00,
2013-11-15 22:12:00,39.9,5.1,30.21,NNE,22,0.0,0.0,23,0.00,,---,0.00,VWS V14.01,2013-11-16 03:12:00,
2013-11-15 22:14:00,39.7,5.0,30.21,NNE,22,0.0,0.0,23,0.00,,---,0.00,VWS V14.01,2013-11-16 03:14:00,
2013-11-15 22:15:00,39.7,5.0,30.21,NNE,22,0.0,0.0,23,0.00,,---,0.00,VWS V14.01,2013-11-16 03:15:00,
2013-11-15 22:16:00,39.9,5.1,30.21,NNE,22,0.0,0.0,23,0.00,,---,0.00,VWS V14.01,2013-11-16 03:16:00,
2013-11-15 22:17:00,39.9,5.1,30.21,NNE,22,0.0,0.0,23,0.00,,---,0.00,VWS V14.01,2013-11-16 03:17:00,
2013-11-15 22:18:00,39.9,5.1,30.21,NNE,22,0.0,0.0,23,0.00,,---,0.00,VWS V14.01,2013-11-16 03:18:00,
2013-11-15 22:19:00,39.9,5.1,30.21,NE,45,0.0,0.0,23,0.00,,---,0.00,VWS V14.01,2013-11-16 03:19:00,
2013-11-15 22:20:00,39.9,5.1,30.21,NE,45,0.0,0.0,23,0.00,,---,0.00,VWS V14.01,2013-11-16 03:20:00,
2013-11-15 22:21:00,39.9,5.1,30.21,NE,45,0.0,0.0,23,0.00,,---,0.00,VWS V14.01,2013-11-16 03:21:00,
2013-11-15 22:23:00,39.9,5.1,30.21,NE,45,0.0,0.0,23,0.00,,---,0.00,VWS V14.01,2013-11-16 03:23:00,
2013-11-15 22:24:00,39.9,5.1,30.21,NE,45,0.0,0.0,23,0.00,,---,0.00,VWS V14.01,2013-11-16 03:24:00,
2013-11-15 22:25:00,39.7,5.0,30.21,NE,45,0.0,0.0,23,0.00,,---,0.00,VWS V14.01,2013-11-16 03:25:00,
2013-11-15 22:26:00,39.9,5.1,30.21,NE,45,0.0,0.0,23,0.00,,---,0.00,VWS V14.01,2013-11-16 03:26:00,
2013-11-15 22:28:00,39.7,5.0,30.21,NE,45,0.0,0.0,23,0.00,,---,0.00,VWS V14.01,2013-11-16 03:28:00,
2013-11-15 22:29:00,39.7,5.0,30.21,NE,45,0.0,0.0,23,0.00,,---,0.00,VWS V14.01,2013-11-16 03:29:00,
2013-11-15 22:30:00,39.7,5.0,30.21,NE,45,0.0,0.0,23,0.00,,---,0.00,VWS V14.01,2013-11-16 03:30:00,
2013-11-15 22:31:00,39.7,5.0,30.21,NE,45,0.0,0.0,23,0.00,,---,0.00,VWS V14.01,2013-11-16 03:31:00,
2013-11-15 22:33:00,39.7,5.0,30.21,NNW,338,0.0,0.0,23,0.00,,---,0.00,VWS V14.01,2013-11-16 03:33:00,
2013-11-15 22:34:00,39.7,5.0,30.21,NNW,338,0.0,0.0,23,0.00,,---,0.00,VWS V14.01,2013-11-16 03:34:00,
2013-11-15 22:35:00,39.7,5.0,30.21,North,0,0.0,0.0,23,0.00,,---,0.00,VWS V14.01,2013-11-16 03:35:00,
2013-11-15 22:36:00,39.7,5.0,30.21,NE,45,0.0,0.0,23,0.00,,---,0.00,VWS V14.01,2013-11-16 03:36:00,
2013-11-15 22:38:00,39.7,5.0,30.21,NE,45,0.0,0.0,23,0.00,,---,0.00,VWS V14.01,2013-11-16 03:38:00,
2013-11-15 22:39:00,39.7,5.0,30.21,NE,45,0.0,0.0,23,0.00,,---,0.00,VWS V14.01,2013-11-16 03:39:00,
2013-11-15 22:40:00,39.7,5.0,30.21,NE,45,0.0,0.0,23,0.00,,---,0.00,VWS V14.01,2013-11-16 03:40:00,
2013-11-15 22:41:00,39.7,5.0,30.21,NE,45,0.0,0.0,23,0.00,,---,0.00,VWS V14.01,2013-11-16 03:41:00,
2013-11-15 22:43:00,39.7,5.0,30.21,NE,45,0.0,0.0,23,0.00,,---,0.00,VWS V14.01,2013-11-16 03:43:00,
2013-11-15 22:44:00,39.7,5.0,30.21,NE,45,0.0,0.0,23,0.00,,---,0.00,VWS V14.01,2013-11-16 03:44:00,
2013-11-15 22:45:00,39.7,5.0,30.21,West,270,0.0,0.0,23,0.00,,---,0.00,VWS V14.01,2013-11-16 03:45:00,
2013-11-15 22:46:00,39.7,5.0,30.21,West,270,0.0,0.0,23,0.00,,---,0.00,VWS V14.01,2013-11-16 03:46:00,
2013-11-15 22:48:00,39.7,5.0,30.21,NE,45,0.0,0.0,23,0.00,,---,0.00,VWS V14.01,2013-11-16 03:48:00,
2013-11-15 22:49:00,39.7,5.0,30.21,NE,45,0.0,0.0,23,0.00,,---,0.00,VWS V14.01,2013-11-16 03:49:00,
2013-11-15 22:50:00,39.7,5.0,30.21,NE,45,0.0,0.0,23,0.00,,---,0.00,VWS V14.01,2013-11-16 03:50:00,
2013-11-15 22:51:00,39.7,5.0,30.21,NE,45,0.0,0.0,23,0.00,,---,0.00,VWS V14.01,2013-11-16 03:51:00,
2013-11-15 22:52:00,39.7,5.0,30.21,NE,45,0.0,0.0,23,0.00,,---,0.00,VWS V14.01,2013-11-16 03:52:00,
2013-11-15 22:53:00,39.6,4.8,30.21,NE,45,0.0,0.0,23,0.00,,---,0.00,VWS V14.01,2013-11-16 03:53:00,
2013-11-15 22:54:00,39.6,4.8,30.21,NE,45,0.0,0.0,23,0.00,,---,0.00,VWS V14.01,2013-11-16 03:54:00,
2013-11-15 22:55:00,39.6,4.8,30.21,NE,45,0.0,0.0,23,0.00,,---,0.00,VWS V14.01,2013-11-16 03:55:00,
2013-11-15 22:56:00,39.6,4.8,30.21,NE,45,0.0,0.0,23,0.00,,---,0.00,VWS V14.01,2013-11-16 03:56:00,
2013-11-15 22:57:00,39.6,4.8,30.21,NE,45,0.0,0.0,23,0.00,,---,0.00,VWS V14.01,2013-11-16 03:57:00,
2013-11-15 22:58:00,39.4,4.7,30.21,NE,45,0.0,0.0,23,0.00,,---,0.00,VWS V14.01,2013-11-16 03:58:00,
2013-11-15 23:00:00,39.4,4.7,30.21,NE,45,0.0,0.0,23,0.00,,---,0.00,VWS V14.01,2013-11-16 04:00:00,
2013-11-15 23:01:00,39.4,4.7,30.21,NE,45,0.0,0.0,23,0.00,,---,0.00,VWS V14.01,2013-11-16 04:01:00,
2013-11-15 23:02:00,39.4,4.7,30.21,NE,45,0.0,0.0,23,0.00,,---,0.00,VWS V14.01,2013-11-16 04:02:00,
2013-11-15 23:03:00,39.4,4.7,30.21,NE,45,0.0,0.0,23,0.00,,---,0.00,VWS V14.01,2013-11-16 04:03:00,
2013-11-15 23:05:00,39.6,4.8,30.21,NE,45,0.0,0.0,23,0.00,,---,0.00,VWS V14.01,2013-11-16 04:05:00,
2013-11-15 23:06:00,39.6,4.8,30.21,NE,45,0.0,0.0,23,0.00,,---,0.00,VWS V14.01,2013-11-16 04:06:00,
2013-11-15 23:07:00,39.4,4.7,30.21,NE,45,0.0,0.0,23,0.00,,---,0.00,VWS V14.01,2013-11-16 04:07:00,
2013-11-15 23:09:00,39.4,4.7,30.21,NE,45,0.0,0.0,23,0.00,,---,0.00,VWS V14.01,2013-11-16 04:09:00,
2013-11-15 23:10:00,39.2,4.5,30.21,NE,45,0.0,0.0,23,0.00,,---,0.00,VWS V14.01,2013-11-16 04:10:00,
2013-11-15 23:11:00,39.2,4.5,30.21,NE,45,0.0,0.0,23,0.00,,---,0.00,VWS V14.01,2013-11-16 04:11:00,
2013-11-15 23:12:00,39.2,4.5,30.21,NE,45,0.0,0.0,23,0.00,,---,0.00,VWS V14.01,2013-11-16 04:12:00,
2013-11-15 23:14:00,39.2,4.5,30.21,NE,45,0.0,0.0,23,0.00,,---,0.00,VWS V14.01,2013-11-16 04:14:00,
2013-11-15 23:15:00,39.2,4.5,30.21,NE,45,0.0,0.0,23,0.00,,---,0.00,VWS V14.01,2013-11-16 04:15:00,
2013-11-15 23:16:00,39.2,4.5,30.21,NE,45,0.0,0.0,23,0.00,,---,0.00,VWS V14.01,2013-11-16 04:16:00,
2013-11-15 23:17:00,39.2,4.5,30.21,NE,45,0.0,0.0,23,0.00,,---,0.00,VWS V14.01,2013-11-16 04:17:00,
2013-11-15 23:19:00,39.2,4.5,30.21,NE,45,0.0,0.0,23,0.00,,---,0.00,VWS V14.01,2013-11-16 04:19:00,
2013-11-15 23:20:00,39.2,4.5,30.21,NE,45,0.0,0.0,23,0.00,,---,0.00,VWS V14.01,2013-11-16 04:20:00,
2013-11-15 23:21:00,39.2,4.5,30.21,NE,45,0.0,0.0,23,0.00,,---,0.00,VWS V14.01,2013-11-16 04:21:00,
2013-11-15 23:22:00,39.2,4.5,30.21,NE,45,0.0,0.0,23,0.00,,---,0.00,VWS V14.01,2013-11-16 04:22:00,
2013-11-15 23:24:00,39.4,4.7,30.21,NE,45,0.0,0.0,23,0.00,,---,0.00,VWS V14.01,2013-11-16 04:24:00,
2013-11-15 23:25:00,39.4,4.7,30.21,NE,45,0.0,0.0,23,0.00,,---,0.00,VWS V14.01,2013-11-16 04:25:00,
2013-11-15 23:27:00,39.2,7.2,30.21,NE,45,0.0,0.0,26,0.00,,---,0.00,VWS V14.01,2013-11-16 04:27:00,
2013-11-15 23:28:00,39.0,7.1,30.21,NE,45,0.0,0.0,26,0.00,,---,0.00,VWS V14.01,2013-11-16 04:28:00,
2013-11-15 23:29:00,39.0,7.1,30.21,NE,45,0.0,0.0,26,0.00,,---,0.00,VWS V14.01,2013-11-16 04:29:00,
2013-11-15 23:30:00,39.2,7.2,30.21,NE,45,0.0,0.0,26,0.00,,---,0.00,VWS V14.01,2013-11-16 04:30:00,
2013-11-15 23:32:00,39.2,7.2,30.21,NE,45,0.0,0.0,26,0.00,,---,0.00,VWS V14.01,2013-11-16 04:32:00,
2013-11-15 23:33:00,39.2,7.2,30.21,NE,45,0.0,0.0,26,0.00,,---,0.00,VWS V14.01,2013-11-16 04:33:00,
2013-11-15 23:35:00,39.2,7.2,30.21,NE,45,0.0,0.0,26,0.00,,---,0.00,VWS V14.01,2013-11-16 04:35:00,
2013-11-15 23:37:00,39.2,7.2,30.21,NE,45,0.0,0.0,26,0.00,,---,0.00,VWS V14.01,2013-11-16 04:37:00,
2013-11-15 23:38:00,39.2,7.2,30.21,NE,45,0.0,0.0,26,0.00,,---,0.00,VWS V14.01,2013-11-16 04:38:00,
2013-11-15 23:40:00,39.2,7.2,30.21,NE,45,0.0,0.0,26,0.00,,---,0.00,VWS V14.01,2013-11-16 04:40:00,
2013-11-15 23:41:00,39.2,7.2,30.21,NE,45,0.0,0.0,26,0.00,,---,0.00,VWS V14.01,2013-11-16 04:41:00,
2013-11-15 23:42:00,39.2,7.2,30.21,NE,45,0.0,0.0,26,0.00,,---,0.00,VWS V14.01,2013-11-16 04:42:00,
2013-11-15 23:43:00,39.2,7.2,30.21,NE,45,0.0,0.0,26,0.00,,---,0.00,VWS V14.01,2013-11-16 04:43:00,
2013-11-15 23:46:00,39.2,7.2,30.21,NE,45,0.0,0.0,26,0.00,,---,0.00,VWS V14.01,2013-11-16 04:46:00,
2013-11-15 23:47:00,39.2,7.2,30.21,NE,45,0.0,0.0,26,0.00,,---,0.00,VWS V14.01,2013-11-16 04:47:00,
2013-11-15 23:48:00,39.2,7.2,30.21,NE,45,0.0,0.0,26,0.00,,---,0.00,VWS V14.01,2013-11-16 04:48:00,
2013-11-15 23:49:00,39.2,7.2,30.21,NE,45,0.0,0.0,26,0.00,,---,0.00,VWS V14.01,2013-11-16 04:49:00,
2013-11-15 23:51:00,39.2,7.2,30.21,NE,45,0.0,0.0,26,0.00,,---,0.00,VWS V14.01,2013-11-16 04:51:00,
2013-11-15 23:52:00,39.0,7.1,30.21,NE,45,0.0,0.0,26,0.00,,---,0.00,VWS V14.01,2013-11-16 04:52:00,
2013-11-15 23:53:00,39.0,7.1,30.21,NE,45,0.0,0.0,26,0.00,,---,0.00,VWS V14.01,2013-11-16 04:53:00,
2013-11-15 23:54:00,39.0,7.1,30.21,NE,45,0.0,0.0,26,0.00,,---,0.00,VWS V14.01,2013-11-16 04:54:00,
2013-11-15 23:56:00,39.0,7.1,30.21,NE,45,0.0,0.0,26,0.00,,---,0.00,VWS V14.01,2013-11-16 04:56:00,
2013-11-15 23:57:00,39.2,7.2,30.21,NE,45,0.0,0.0,26,0.00,,---,0.00,VWS V14.01,2013-11-16 04:57:00,
2013-11-15 23:58:00,39.2,7.2,30.21,NE,45,0.0,0.0,26,0.00,,---,0.00,VWS V14.01,2013-11-16 04:58:00,
2013-11-15 23:59:00,39.2,7.2,30.21,NE,45,0.0,0.0,26,0.00,,---,0.00,VWS V14.01,2013-11-16 04:59:00,